Time,TemperatureF,DewpointF,PressureIn,WindDirection,WindDirectionDegrees,WindSpeedMPH,WindSpeedGustMPH,Humidity,HourlyPrecipIn,Conditions,Clouds,dailyrainin,SoftwareType,DateUTC
2013-02-08 00:00:00,26.9,1.0,30.33,NE,41,2.0,7.0,32,0.00,,---,0.00,VWS V14.01,2013-02-08 05:00:00,
2013-02-08 00:01:00,26.9,1.0,30.33,ESE,102,3.0,6.0,32,0.00,,---,0.00,VWS V14.01,2013-02-08 05:01:00,
2013-02-08 00:05:00,26.9,1.0,30.33,NE,48,2.0,7.0,32,0.00,,---,0.00,VWS V14.01,2013-02-08 05:05:00,
2013-02-08 00:06:00,26.9,1.0,30.33,ENE,59,11.0,11.0,32,0.00,,---,0.00,VWS V14.01,2013-02-08 05:06:00,
2013-02-08 00:10:00,26.9,1.6,30.33,NE,55,7.0,11.0,33,0.00,,---,0.00,VWS V14.01,2013-02-08 05:10:00,
2013-02-08 00:11:00,26.9,1.6,30.33,East,97,6.0,11.0,33,0.00,,---,0.00,VWS V14.01,2013-02-08 05:11:00,
2013-02-08 00:15:00,26.9,1.6,30.30,NE,56,2.0,11.0,33,0.00,,---,0.00,VWS V14.01,2013-02-08 05:15:00,
2013-02-08 00:16:00,26.9,1.6,30.30,ENE,65,5.0,10.0,33,0.00,,---,0.00,VWS V14.01,2013-02-08 05:16:00,
2013-02-08 00:20:00,26.7,1.5,30.30,NE,37,2.0,11.0,33,0.00,,---,0.00,VWS V14.01,2013-02-08 05:20:00,
2013-02-08 00:21:00,26.7,1.5,30.30,NE,35,5.0,11.0,33,0.00,,---,0.00,VWS V14.01,2013-02-08 05:21:00,
2013-02-08 00:25:00,26.7,1.5,30.30,NNE,28,3.0,11.0,33,0.00,,---,0.00,VWS V14.01,2013-02-08 05:25:00,
2013-02-08 00:26:00,26.7,1.5,30.30,ENE,69,1.0,11.0,33,0.00,,---,0.00,VWS V14.01,2013-02-08 05:26:00,
2013-02-08 00:30:00,26.6,2.0,30.30,NE,41,2.0,11.0,34,0.00,,---,0.00,VWS V14.01,2013-02-08 05:30:00,
2013-02-08 00:31:00,26.6,2.0,30.30,ESE,119,1.0,1.0,34,0.00,,---,0.00,VWS V14.01,2013-02-08 05:31:00,
2013-02-08 00:35:00,26.6,2.7,30.30,NE,47,2.0,7.0,35,0.00,,---,0.00,VWS V14.01,2013-02-08 05:35:00,
2013-02-08 00:36:00,26.6,2.7,30.30,NE,49,5.0,7.0,35,0.00,,---,0.00,VWS V14.01,2013-02-08 05:36:00,
2013-02-08 00:40:00,26.6,2.7,30.30,NE,56,2.0,8.0,35,0.00,,---,0.00,VWS V14.01,2013-02-08 05:40:00,
2013-02-08 00:41:00,26.6,2.7,30.30,ENE,71,7.0,8.0,35,0.00,,---,0.00,VWS V14.01,2013-02-08 05:41:00,
2013-02-08 00:46:00,26.6,3.3,30.28,ENE,69,5.0,5.0,36,0.00,,---,0.00,VWS V14.01,2013-02-08 05:46:00,
2013-02-08 00:51:00,26.6,3.8,30.28,NE,44,2.0,7.0,37,0.00,,---,0.00,VWS V14.01,2013-02-08 05:51:00,
2013-02-08 00:52:00,26.6,3.8,30.28,ENE,66,4.0,7.0,37,0.00,,---,0.00,VWS V14.01,2013-02-08 05:52:00,
2013-02-08 00:56:00,26.6,5.0,30.28,ENE,69,2.0,8.0,39,0.00,,---,0.00,VWS V14.01,2013-02-08 05:56:00,
2013-02-08 00:57:00,26.6,5.0,30.28,NE,52,7.0,8.0,39,0.00,,---,0.00,VWS V14.01,2013-02-08 05:57:00,
2013-02-08 01:01:00,26.6,5.6,30.28,ENE,58,4.0,4.0,40,0.00,,---,0.00,VWS V14.01,2013-02-08 06:01:00,
2013-02-08 01:02:00,26.6,6.1,30.28,NE,51,9.0,9.0,41,0.00,,---,0.00,VWS V14.01,2013-02-08 06:02:00,
2013-02-08 01:06:00,26.6,6.1,30.28,NNE,17,6.0,11.0,41,0.00,,---,0.00,VWS V14.01,2013-02-08 06:06:00,
2013-02-08 01:07:00,26.6,6.6,30.28,NE,42,5.0,11.0,42,0.00,,---,0.00,VWS V14.01,2013-02-08 06:07:00,
2013-02-08 01:11:00,26.6,7.1,30.28,NE,56,7.0,11.0,43,0.00,,---,0.00,VWS V14.01,2013-02-08 06:11:00,
2013-02-08 01:12:00,26.6,7.1,30.28,East,90,3.0,11.0,43,0.00,,---,0.00,VWS V14.01,2013-02-08 06:12:00,
2013-02-08 01:16:00,26.6,7.6,30.27,East,92,6.0,6.0,44,0.00,,---,0.00,VWS V14.01,2013-02-08 06:16:00,
2013-02-08 01:17:00,26.6,8.1,30.27,ENE,68,1.0,7.0,45,0.00,,---,0.00,VWS V14.01,2013-02-08 06:17:00,
2013-02-08 01:21:00,26.6,8.1,30.27,ENE,65,4.0,11.0,45,0.00,,---,0.00,VWS V14.01,2013-02-08 06:21:00,
2013-02-08 01:22:00,26.6,8.1,30.27,ENE,66,8.0,11.0,45,0.00,,---,0.00,VWS V14.01,2013-02-08 06:22:00,
2013-02-08 01:26:00,26.6,8.6,30.27,NE,51,5.0,11.0,46,0.00,,---,0.00,VWS V14.01,2013-02-08 06:26:00,
2013-02-08 01:27:00,26.6,8.6,30.27,NE,34,2.0,11.0,46,0.00,,---,0.00,VWS V14.01,2013-02-08 06:27:00,
2013-02-08 01:28:00,26.6,8.6,30.27,ENE,66,6.0,11.0,46,0.00,,---,0.00,VWS V14.01,2013-02-08 06:28:00,
2013-02-08 01:31:00,26.6,9.1,30.28,NE,35,4.0,9.0,47,0.00,,---,0.00,VWS V14.01,2013-02-08 06:31:00,
2013-02-08 01:32:00,26.6,9.1,30.28,East,86,3.0,9.0,47,0.00,,---,0.00,VWS V14.01,2013-02-08 06:32:00,
2013-02-08 01:33:00,26.6,9.1,30.28,ENE,66,2.0,9.0,47,0.00,,---,0.00,VWS V14.01,2013-02-08 06:33:00,
2013-02-08 01:36:00,26.6,9.1,30.28,SE,126,5.0,9.0,47,0.00,,---,0.00,VWS V14.01,2013-02-08 06:36:00,
2013-02-08 01:37:00,26.6,9.1,30.28,ESE,110,2.0,9.0,47,0.00,,---,0.00,VWS V14.01,2013-02-08 06:37:00,
2013-02-08 01:38:00,26.6,9.1,30.28,NE,41,6.0,9.0,47,0.00,,---,0.00,VWS V14.01,2013-02-08 06:38:00,
2013-02-08 01:41:00,26.6,9.6,30.28,NE,48,0.0,9.0,48,0.00,,---,0.00,VWS V14.01,2013-02-08 06:41:00,
2013-02-08 01:42:00,26.6,9.6,30.28,ENE,61,6.0,9.0,48,0.00,,---,0.00,VWS V14.01,2013-02-08 06:42:00,
2013-02-08 01:44:00,26.6,9.6,30.28,NE,44,2.0,9.0,48,0.00,,---,0.00,VWS V14.01,2013-02-08 06:44:00,
2013-02-08 01:46:00,26.6,9.6,30.27,NE,41,6.0,7.0,48,0.00,,---,0.00,VWS V14.01,2013-02-08 06:46:00,
2013-02-08 01:47:00,26.6,9.6,30.27,ENE,68,5.0,7.0,48,0.00,,---,0.00,VWS V14.01,2013-02-08 06:47:00,
2013-02-08 01:49:00,26.6,9.6,30.27,ENE,58,1.0,7.0,48,0.00,,---,0.00,VWS V14.01,2013-02-08 06:49:00,
2013-02-08 01:51:00,26.6,10.0,30.27,NE,52,5.0,7.0,49,0.00,,---,0.00,VWS V14.01,2013-02-08 06:51:00,
2013-02-08 01:52:00,26.6,10.0,30.27,NE,51,0.0,7.0,49,0.00,,---,0.00,VWS V14.01,2013-02-08 06:52:00,
2013-02-08 01:54:00,26.6,10.0,30.27,ENE,62,6.0,7.0,49,0.00,,---,0.00,VWS V14.01,2013-02-08 06:54:00,
2013-02-08 01:56:00,26.6,10.0,30.27,NE,40,5.0,8.0,49,0.00,,---,0.00,VWS V14.01,2013-02-08 06:56:00,
2013-02-08 01:57:00,26.6,10.0,30.27,ENE,62,5.0,8.0,49,0.00,,---,0.00,VWS V14.01,2013-02-08 06:57:00,
2013-02-08 01:59:00,26.6,10.0,30.27,ENE,62,7.0,8.0,49,0.00,,---,0.00,VWS V14.01,2013-02-08 06:59:00,
2013-02-08 02:01:00,26.6,10.5,30.26,ENE,64,2.0,6.0,50,0.00,,---,0.00,VWS V14.01,2013-02-08 07:01:00,
2013-02-08 02:02:00,26.6,10.5,30.26,ENE,65,1.0,6.0,50,0.00,,---,0.00,VWS V14.01,2013-02-08 07:02:00,
2013-02-08 02:04:00,26.6,10.5,30.26,ENE,72,2.0,9.0,50,0.00,,---,0.00,VWS V14.01,2013-02-08 07:04:00,
2013-02-08 02:07:00,26.6,10.9,30.26,NE,55,3.0,9.0,51,0.00,,---,0.00,VWS V14.01,2013-02-08 07:07:00,
2013-02-08 02:09:00,26.6,10.9,30.26,NE,45,6.0,9.0,51,0.00,,---,0.00,VWS V14.01,2013-02-08 07:09:00,
2013-02-08 02:12:00,26.6,10.9,30.26,ENE,76,3.0,9.0,51,0.00,,---,0.00,VWS V14.01,2013-02-08 07:12:00,
2013-02-08 02:14:00,26.6,10.9,30.26,NE,42,3.0,9.0,51,0.00,,---,0.00,VWS V14.01,2013-02-08 07:14:00,
2013-02-08 02:17:00,26.7,11.4,30.26,NE,56,5.0,7.0,52,0.00,,---,0.00,VWS V14.01,2013-02-08 07:17:00,
2013-02-08 02:19:00,26.7,11.4,30.26,ENE,69,6.0,7.0,52,0.00,,---,0.00,VWS V14.01,2013-02-08 07:19:00,
2013-02-08 02:22:00,26.7,11.4,30.26,East,85,0.0,8.0,52,0.00,,---,0.00,VWS V14.01,2013-02-08 07:22:00,
2013-02-08 02:24:00,26.7,11.4,30.26,NE,40,1.0,8.0,52,0.00,,---,0.00,VWS V14.01,2013-02-08 07:24:00,
2013-02-08 02:27:00,26.7,11.9,30.26,ENE,65,2.0,8.0,53,0.00,,---,0.00,VWS V14.01,2013-02-08 07:27:00,
2013-02-08 02:29:00,26.7,11.9,30.26,ENE,71,4.0,8.0,53,0.00,,---,0.00,VWS V14.01,2013-02-08 07:29:00,
2013-02-08 02:32:00,26.9,12.1,30.26,NE,47,5.0,7.0,53,0.00,,---,0.00,VWS V14.01,2013-02-08 07:32:00,
2013-02-08 02:33:00,26.9,12.1,30.26,NE,47,0.0,7.0,53,0.00,,---,0.00,VWS V14.01,2013-02-08 07:33:00,
2013-02-08 02:34:00,26.9,12.1,30.26,ENE,78,1.0,7.0,53,0.00,,---,0.00,VWS V14.01,2013-02-08 07:34:00,
2013-02-08 02:37:00,26.9,12.1,30.26,NE,48,2.0,7.0,53,0.00,,---,0.00,VWS V14.01,2013-02-08 07:37:00,
2013-02-08 02:38:00,26.9,12.5,30.26,ENE,71,3.0,7.0,54,0.00,,---,0.00,VWS V14.01,2013-02-08 07:38:00,
2013-02-08 02:40:00,26.9,12.5,30.26,East,89,1.0,7.0,54,0.00,,---,0.00,VWS V14.01,2013-02-08 07:40:00,
2013-02-08 02:42:00,26.9,12.5,30.26,NE,34,1.0,7.0,54,0.00,,---,0.00,VWS V14.01,2013-02-08 07:42:00,
2013-02-08 02:43:00,27.0,12.6,30.26,NE,44,1.0,7.0,54,0.00,,---,0.00,VWS V14.01,2013-02-08 07:43:00,
2013-02-08 02:45:00,27.0,12.6,30.25,NE,48,1.0,7.0,54,0.00,,---,0.00,VWS V14.01,2013-02-08 07:45:00,
2013-02-08 02:47:00,27.0,12.6,30.25,NE,34,5.0,5.0,54,0.00,,---,0.00,VWS V14.01,2013-02-08 07:47:00,
2013-02-08 02:48:00,27.0,12.6,30.25,NE,44,2.0,5.0,54,0.00,,---,0.00,VWS V14.01,2013-02-08 07:48:00,
2013-02-08 02:50:00,27.0,13.0,30.25,NNE,32,7.0,7.0,55,0.00,,---,0.00,VWS V14.01,2013-02-08 07:50:00,
2013-02-08 02:53:00,27.0,13.0,30.25,North,1,3.0,7.0,55,0.00,,---,0.00,VWS V14.01,2013-02-08 07:53:00,
2013-02-08 02:55:00,27.0,13.0,30.25,ENE,65,5.0,7.0,55,0.00,,---,0.00,VWS V14.01,2013-02-08 07:55:00,
2013-02-08 02:58:00,27.0,13.4,30.25,ENE,69,2.0,7.0,56,0.00,,---,0.00,VWS V14.01,2013-02-08 07:58:00,
2013-02-08 03:00:00,27.0,13.4,30.24,NE,47,6.0,7.0,56,0.00,,---,0.00,VWS V14.01,2013-02-08 08:00:00,
2013-02-08 03:03:00,27.2,13.6,30.24,NE,49,3.0,3.0,56,0.00,,---,0.00,VWS V14.01,2013-02-08 08:03:00,
2013-02-08 03:05:00,27.2,13.6,30.24,ENE,58,7.0,7.0,56,0.00,,---,0.00,VWS V14.01,2013-02-08 08:05:00,
2013-02-08 03:08:00,27.3,14.1,30.24,NE,40,7.0,7.0,57,0.00,,---,0.00,VWS V14.01,2013-02-08 08:08:00,
2013-02-08 03:11:00,27.3,14.1,30.24,NE,44,2.0,7.0,57,0.00,,---,0.00,VWS V14.01,2013-02-08 08:11:00,
2013-02-08 03:13:00,27.3,14.1,30.24,NE,54,3.0,10.0,57,0.00,,---,0.00,VWS V14.01,2013-02-08 08:13:00,
2013-02-08 03:16:00,27.5,14.7,30.24,NE,52,7.0,7.0,58,0.00,,---,0.00,VWS V14.01,2013-02-08 08:16:00,
2013-02-08 03:18:00,27.5,14.7,30.24,NE,37,4.0,11.0,58,0.00,,---,0.00,VWS V14.01,2013-02-08 08:18:00,
2013-02-08 03:21:00,27.5,14.7,30.24,NE,52,6.0,11.0,58,0.00,,---,0.00,VWS V14.01,2013-02-08 08:21:00,
2013-02-08 03:23:00,27.5,15.1,30.24,NE,45,7.0,11.0,59,0.00,,---,0.00,VWS V14.01,2013-02-08 08:23:00,
2013-02-08 03:26:00,27.6,15.2,30.24,ENE,65,5.0,11.0,59,0.00,,---,0.00,VWS V14.01,2013-02-08 08:26:00,
2013-02-08 03:28:00,27.6,15.2,30.24,ENE,71,3.0,11.0,59,0.00,,---,0.00,VWS V14.01,2013-02-08 08:28:00,
2013-02-08 03:31:00,27.8,15.7,30.23,ENE,64,3.0,6.0,60,0.00,,---,0.00,VWS V14.01,2013-02-08 08:31:00,
2013-02-08 03:33:00,27.8,15.7,30.23,NE,38,0.0,6.0,60,0.00,,---,0.00,VWS V14.01,2013-02-08 08:33:00,
2013-02-08 03:34:00,27.8,15.7,30.23,NE,38,2.0,6.0,60,0.00,,---,0.00,VWS V14.01,2013-02-08 08:34:00,
2013-02-08 03:36:00,27.8,16.1,30.23,NE,52,0.0,7.0,61,0.00,,---,0.00,VWS V14.01,2013-02-08 08:36:00,
2013-02-08 03:38:00,27.9,16.2,30.23,NNE,16,6.0,7.0,61,0.00,,---,0.00,VWS V14.01,2013-02-08 08:38:00,
2013-02-08 03:39:00,27.9,16.2,30.23,NNE,16,6.0,7.0,61,0.00,,---,0.00,VWS V14.01,2013-02-08 08:39:00,
2013-02-08 03:42:00,27.9,16.2,30.23,East,83,6.0,7.0,61,0.00,,---,0.00,VWS V14.01,2013-02-08 08:42:00,
2013-02-08 03:43:00,28.1,16.8,30.23,ENE,64,7.0,8.0,62,0.00,,---,0.00,VWS V14.01,2013-02-08 08:43:00,
2013-02-08 03:44:00,28.1,16.8,30.23,East,99,6.0,8.0,62,0.00,,---,0.00,VWS V14.01,2013-02-08 08:44:00,
2013-02-08 03:47:00,28.1,16.8,30.22,NE,34,3.0,4.0,62,0.00,,---,0.00,VWS V14.01,2013-02-08 08:47:00,
2013-02-08 03:49:00,28.2,16.9,30.22,NE,47,4.0,5.0,62,0.00,,---,0.00,VWS V14.01,2013-02-08 08:49:00,
2013-02-08 03:52:00,28.2,16.9,30.22,NE,54,5.0,8.0,62,0.00,,---,0.00,VWS V14.01,2013-02-08 08:52:00,
2013-02-08 03:54:00,28.2,17.2,30.22,NNE,24,5.0,8.0,63,0.00,,---,0.00,VWS V14.01,2013-02-08 08:54:00,
2013-02-08 03:57:00,28.4,17.4,30.22,NE,35,6.0,10.0,63,0.00,,---,0.00,VWS V14.01,2013-02-08 08:57:00,
2013-02-08 03:59:00,28.4,17.4,30.22,NE,47,1.0,10.0,63,0.00,,---,0.00,VWS V14.01,2013-02-08 08:59:00,
2013-02-08 04:00:00,28.4,17.4,30.21,ENE,65,2.0,10.0,63,0.00,,---,0.00,VWS V14.01,2013-02-08 09:00:00,
2013-02-08 04:02:00,28.4,17.4,30.21,ENE,59,4.0,8.0,63,0.00,,---,0.00,VWS V14.01,2013-02-08 09:02:00,
2013-02-08 04:04:00,28.4,17.8,30.21,NE,49,3.0,8.0,64,0.00,,---,0.00,VWS V14.01,2013-02-08 09:04:00,
2013-02-08 04:05:00,28.5,17.9,30.21,ENE,65,10.0,11.0,64,0.00,,---,0.00,VWS V14.01,2013-02-08 09:05:00,
2013-02-08 04:08:00,28.5,17.9,30.21,NE,45,11.0,11.0,64,0.00,,---,0.00,VWS V14.01,2013-02-08 09:08:00,
2013-02-08 04:09:00,28.7,18.1,30.21,NE,56,6.0,11.0,64,0.00,,---,0.00,VWS V14.01,2013-02-08 09:09:00,
2013-02-08 04:10:00,28.7,18.1,30.21,East,86,6.0,11.0,64,0.00,,---,0.00,VWS V14.01,2013-02-08 09:10:00,
2013-02-08 04:13:00,28.7,18.4,30.21,NE,45,6.0,11.0,65,0.00,,---,0.00,VWS V14.01,2013-02-08 09:13:00,
2013-02-08 04:14:00,28.8,18.5,30.21,NE,35,6.0,11.0,65,0.00,,---,0.00,VWS V14.01,2013-02-08 09:14:00,
2013-02-08 04:15:00,28.8,18.5,30.20,NNE,14,5.0,11.0,65,0.00,,---,0.00,VWS V14.01,2013-02-08 09:15:00,
2013-02-08 04:18:00,29.0,18.7,30.20,ENE,78,1.0,7.0,65,0.00,,---,0.00,VWS V14.01,2013-02-08 09:18:00,
2013-02-08 04:19:00,29.0,18.7,30.20,NE,47,6.0,7.0,65,0.00,,---,0.00,VWS V14.01,2013-02-08 09:19:00,
2013-02-08 04:20:00,29.0,18.7,30.20,East,79,1.0,10.0,65,0.00,,---,0.00,VWS V14.01,2013-02-08 09:20:00,
2013-02-08 04:23:00,29.1,19.2,30.20,ENE,61,5.0,11.0,66,0.00,,---,0.00,VWS V14.01,2013-02-08 09:23:00,
2013-02-08 04:24:00,29.1,19.2,30.20,East,88,3.0,11.0,66,0.00,,---,0.00,VWS V14.01,2013-02-08 09:24:00,
2013-02-08 04:25:00,29.1,19.2,30.20,ENE,62,7.0,11.0,66,0.00,,---,0.00,VWS V14.01,2013-02-08 09:25:00,
2013-02-08 04:28:00,29.3,19.4,30.20,ENE,76,2.0,11.0,66,0.00,,---,0.00,VWS V14.01,2013-02-08 09:28:00,
2013-02-08 04:29:00,29.3,19.4,30.20,NE,38,6.0,11.0,66,0.00,,---,0.00,VWS V14.01,2013-02-08 09:29:00,
2013-02-08 04:30:00,29.3,19.4,30.19,ENE,73,11.0,11.0,66,0.00,,---,0.00,VWS V14.01,2013-02-08 09:30:00,
2013-02-08 04:33:00,29.3,19.4,30.19,NE,44,0.0,9.0,66,0.00,,---,0.00,VWS V14.01,2013-02-08 09:33:00,
2013-02-08 04:34:00,29.3,19.4,30.19,NE,45,2.0,9.0,66,0.00,,---,0.00,VWS V14.01,2013-02-08 09:34:00,
2013-02-08 04:35:00,29.3,19.4,30.19,East,100,3.0,9.0,66,0.00,,---,0.00,VWS V14.01,2013-02-08 09:35:00,
2013-02-08 04:38:00,29.4,19.5,30.19,ENE,71,1.0,9.0,66,0.00,,---,0.00,VWS V14.01,2013-02-08 09:38:00,
2013-02-08 04:39:00,29.4,19.5,30.19,NE,51,3.0,9.0,66,0.00,,---,0.00,VWS V14.01,2013-02-08 09:39:00,
2013-02-08 04:40:00,29.4,19.8,30.19,NNE,27,6.0,9.0,67,0.00,,---,0.00,VWS V14.01,2013-02-08 09:40:00,
2013-02-08 04:43:00,29.4,19.8,30.19,NNE,28,5.0,9.0,67,0.00,,---,0.00,VWS V14.01,2013-02-08 09:43:00,
2013-02-08 04:45:00,29.4,19.8,30.18,NE,54,2.0,9.0,67,0.00,,---,0.00,VWS V14.01,2013-02-08 09:45:00,
2013-02-08 04:46:00,29.4,19.8,30.18,NE,44,0.0,0.0,67,0.00,,---,0.00,VWS V14.01,2013-02-08 09:46:00,
2013-02-08 04:48:00,29.4,19.8,30.18,NE,49,5.0,10.0,67,0.00,,---,0.00,VWS V14.01,2013-02-08 09:48:00,
2013-02-08 04:50:00,29.4,19.8,30.18,ENE,73,6.0,10.0,67,0.00,,---,0.00,VWS V14.01,2013-02-08 09:50:00,
2013-02-08 04:51:00,29.5,19.9,30.18,NE,40,3.0,10.0,67,0.00,,---,0.00,VWS V14.01,2013-02-08 09:51:00,
2013-02-08 04:53:00,29.5,19.9,30.18,East,86,3.0,10.0,67,0.00,,---,0.00,VWS V14.01,2013-02-08 09:53:00,
2013-02-08 04:55:00,29.5,20.3,30.18,ENE,66,4.0,10.0,68,0.00,,---,0.00,VWS V14.01,2013-02-08 09:55:00,
2013-02-08 04:56:00,29.5,19.9,30.18,NE,38,6.0,10.0,67,0.00,,---,0.00,VWS V14.01,2013-02-08 09:56:00,
2013-02-08 04:58:00,29.7,20.5,30.18,NE,52,5.0,10.0,68,0.00,,---,0.00,VWS V14.01,2013-02-08 09:58:00,
2013-02-08 05:00:00,29.7,20.5,30.18,East,99,7.0,10.0,68,0.00,,---,0.00,VWS V14.01,2013-02-08 10:00:00,
2013-02-08 05:01:00,29.7,20.5,30.18,ENE,71,2.0,10.0,68,0.00,,---,0.00,VWS V14.01,2013-02-08 10:01:00,
2013-02-08 05:03:00,29.8,20.5,30.18,ENE,69,1.0,5.0,68,0.00,,---,0.00,VWS V14.01,2013-02-08 10:03:00,
2013-02-08 05:05:00,29.8,20.5,30.18,NNE,28,0.0,6.0,68,0.00,,---,0.00,VWS V14.01,2013-02-08 10:05:00,
2013-02-08 05:06:00,29.8,20.5,30.18,NNE,32,0.0,6.0,68,0.00,,---,0.00,VWS V14.01,2013-02-08 10:06:00,
2013-02-08 05:09:00,29.8,20.5,30.18,NNE,31,3.0,7.0,68,0.00,,---,0.00,VWS V14.01,2013-02-08 10:09:00,
2013-02-08 05:10:00,29.8,20.5,30.18,NE,41,7.0,7.0,68,0.00,,---,0.00,VWS V14.01,2013-02-08 10:10:00,
2013-02-08 05:11:00,29.8,20.5,30.18,ENE,64,6.0,8.0,68,0.00,,---,0.00,VWS V14.01,2013-02-08 10:11:00,
2013-02-08 05:14:00,30.0,20.7,30.18,East,97,5.0,8.0,68,0.00,,---,0.00,VWS V14.01,2013-02-08 10:14:00,
2013-02-08 05:15:00,30.0,20.7,30.17,ENE,66,1.0,8.0,68,0.00,,---,0.00,VWS V14.01,2013-02-08 10:15:00,
2013-02-08 05:16:00,30.0,21.1,30.17,NE,55,5.0,7.0,69,0.00,,---,0.00,VWS V14.01,2013-02-08 10:16:00,
2013-02-08 05:19:00,30.1,21.2,30.17,NE,41,4.0,8.0,69,0.00,,---,0.00,VWS V14.01,2013-02-08 10:19:00,
2013-02-08 05:20:00,30.1,21.2,30.17,ENE,64,7.0,8.0,69,0.00,,---,0.00,VWS V14.01,2013-02-08 10:20:00,
2013-02-08 05:21:00,30.1,21.2,30.17,ENE,62,7.0,8.0,69,0.00,,---,0.00,VWS V14.01,2013-02-08 10:21:00,
2013-02-08 05:24:00,30.3,21.4,30.17,NE,48,8.0,8.0,69,0.00,,---,0.00,VWS V14.01,2013-02-08 10:24:00,
2013-02-08 05:25:00,30.3,21.4,30.17,East,83,2.0,10.0,69,0.00,,---,0.00,VWS V14.01,2013-02-08 10:25:00,
2013-02-08 05:26:00,30.3,21.4,30.17,East,82,5.0,10.0,69,0.00,,---,0.00,VWS V14.01,2013-02-08 10:26:00,
2013-02-08 05:29:00,30.3,21.4,30.17,ENE,62,2.0,10.0,69,0.00,,---,0.00,VWS V14.01,2013-02-08 10:29:00,
2013-02-08 05:30:00,30.4,21.5,30.16,ENE,68,6.0,10.0,69,0.00,,---,0.00,VWS V14.01,2013-02-08 10:30:00,
2013-02-08 05:31:00,30.4,21.5,30.16,ENE,66,3.0,6.0,69,0.00,,---,0.00,VWS V14.01,2013-02-08 10:31:00,
2013-02-08 05:34:00,30.4,21.5,30.16,NE,38,9.0,10.0,69,0.00,,---,0.00,VWS V14.01,2013-02-08 10:34:00,
2013-02-08 05:35:00,30.4,21.5,30.16,East,89,6.0,10.0,69,0.00,,---,0.00,VWS V14.01,2013-02-08 10:35:00,
2013-02-08 05:36:00,30.4,21.5,30.16,NE,42,1.0,10.0,69,0.00,,---,0.00,VWS V14.01,2013-02-08 10:36:00,
2013-02-08 05:39:00,30.6,21.6,30.16,ENE,68,6.0,10.0,69,0.00,,---,0.00,VWS V14.01,2013-02-08 10:39:00,
2013-02-08 05:40:00,30.6,21.6,30.16,NE,51,7.0,10.0,69,0.00,,---,0.00,VWS V14.01,2013-02-08 10:40:00,
2013-02-08 05:41:00,30.6,21.6,30.16,NE,44,5.0,10.0,69,0.00,,---,0.00,VWS V14.01,2013-02-08 10:41:00,
2013-02-08 05:45:00,30.7,21.8,30.16,East,89,4.0,10.0,69,0.00,,---,0.00,VWS V14.01,2013-02-08 10:45:00,
2013-02-08 05:46:00,30.7,21.8,30.15,NE,49,4.0,7.0,69,0.00,,---,0.00,VWS V14.01,2013-02-08 10:46:00,
2013-02-08 05:50:00,30.9,21.9,30.15,NE,48,0.0,10.0,69,0.00,,---,0.00,VWS V14.01,2013-02-08 10:50:00,
2013-02-08 05:51:00,30.9,21.9,30.15,NE,48,3.0,10.0,69,0.00,,---,0.00,VWS V14.01,2013-02-08 10:51:00,
2013-02-08 05:52:00,30.9,21.9,30.15,East,90,0.0,10.0,69,0.00,,---,0.00,VWS V14.01,2013-02-08 10:52:00,
2013-02-08 05:56:00,31.0,21.7,30.15,NE,47,3.0,10.0,68,0.00,,---,0.00,VWS V14.01,2013-02-08 10:56:00,
2013-02-08 05:57:00,31.0,21.7,30.15,NE,54,4.0,10.0,68,0.00,,---,0.00,VWS V14.01,2013-02-08 10:57:00,
2013-02-08 06:01:00,31.0,21.7,30.15,NE,49,3.0,3.0,68,0.00,,---,0.00,VWS V14.01,2013-02-08 11:01:00,
2013-02-08 06:02:00,31.0,21.7,30.15,NE,47,2.0,5.0,68,0.00,,---,0.00,VWS V14.01,2013-02-08 11:02:00,
2013-02-08 06:06:00,31.0,21.7,30.15,NE,34,5.0,7.0,68,0.00,,---,0.00,VWS V14.01,2013-02-08 11:06:00,
2013-02-08 06:07:00,31.2,21.9,30.15,NE,56,1.0,7.0,68,0.00,,---,0.00,VWS V14.01,2013-02-08 11:07:00,
2013-02-08 06:11:00,31.2,22.2,30.15,ENE,73,2.0,7.0,69,0.00,,---,0.00,VWS V14.01,2013-02-08 11:11:00,
2013-02-08 06:12:00,31.2,22.2,30.15,NE,49,2.0,7.0,69,0.00,,---,0.00,VWS V14.01,2013-02-08 11:12:00,
2013-02-08 06:16:00,31.3,22.0,30.15,NE,40,4.0,4.0,68,0.00,,---,0.00,VWS V14.01,2013-02-08 11:16:00,
2013-02-08 06:17:00,31.3,22.0,30.15,NNE,28,1.0,4.0,68,0.00,,---,0.00,VWS V14.01,2013-02-08 11:17:00,
2013-02-08 06:21:00,31.5,22.2,30.15,ENE,66,0.0,5.0,68,0.00,,---,0.00,VWS V14.01,2013-02-08 11:21:00,
2013-02-08 06:22:00,31.5,22.2,30.15,SE,124,1.0,5.0,68,0.00,,---,0.00,VWS V14.01,2013-02-08 11:22:00,
2013-02-08 06:26:00,31.6,22.3,30.15,NNE,31,5.0,6.0,68,0.00,,---,0.00,VWS V14.01,2013-02-08 11:26:00,
2013-02-08 06:27:00,31.6,22.3,30.15,NE,35,0.0,6.0,68,0.00,,---,0.00,VWS V14.01,2013-02-08 11:27:00,
2013-02-08 06:31:00,31.8,22.5,30.15,NE,51,1.0,3.0,68,0.00,,---,0.00,VWS V14.01,2013-02-08 11:31:00,
2013-02-08 06:32:00,31.8,22.5,30.15,NE,51,0.0,3.0,68,0.00,,---,0.00,VWS V14.01,2013-02-08 11:32:00,
2013-02-08 06:36:00,32.1,23.1,30.15,ENE,75,2.0,6.0,69,0.00,,---,0.00,VWS V14.01,2013-02-08 11:36:00,
2013-02-08 06:37:00,32.1,23.1,30.15,ESE,107,0.0,6.0,69,0.00,,---,0.00,VWS V14.01,2013-02-08 11:37:00,
2013-02-08 06:38:00,32.2,23.2,30.15,East,86,2.0,6.0,69,0.00,,---,0.00,VWS V14.01,2013-02-08 11:38:00,
2013-02-08 06:41:00,32.5,23.5,30.15,ENE,59,4.0,7.0,69,0.00,,---,0.00,VWS V14.01,2013-02-08 11:41:00,
2013-02-08 06:42:00,32.5,23.5,30.15,East,86,3.0,7.0,69,0.00,,---,0.00,VWS V14.01,2013-02-08 11:42:00,
2013-02-08 06:43:00,32.7,23.7,30.15,ENE,59,5.0,7.0,69,0.00,,---,0.00,VWS V14.01,2013-02-08 11:43:00,
2013-02-08 06:46:00,32.9,23.9,30.14,ESE,104,1.0,10.0,69,0.00,,---,0.00,VWS V14.01,2013-02-08 11:46:00,
2013-02-08 06:47:00,32.9,23.9,30.14,NE,40,6.0,10.0,69,0.00,,---,0.00,VWS V14.01,2013-02-08 11:47:00,
2013-02-08 06:48:00,32.9,23.9,30.14,ESE,123,4.0,10.0,69,0.00,,---,0.00,VWS V14.01,2013-02-08 11:48:00,
2013-02-08 06:51:00,33.1,24.0,30.14,ENE,69,5.0,10.0,69,0.00,,---,0.00,VWS V14.01,2013-02-08 11:51:00,
2013-02-08 06:52:00,33.2,24.1,30.14,NE,35,11.0,11.0,69,0.00,,---,0.00,VWS V14.01,2013-02-08 11:52:00,
2013-02-08 06:53:00,33.2,23.8,30.14,SSE,147,10.0,11.0,68,0.00,,---,0.00,VWS V14.01,2013-02-08 11:53:00,
2013-02-08 06:56:00,33.2,23.8,30.14,ENE,76,3.0,13.0,68,0.00,,---,0.00,VWS V14.01,2013-02-08 11:56:00,
2013-02-08 06:57:00,33.2,23.8,30.14,ENE,68,0.0,13.0,68,0.00,,---,0.00,VWS V14.01,2013-02-08 11:57:00,
2013-02-08 06:58:00,33.4,24.0,30.14,East,79,11.0,13.0,68,0.00,,---,0.00,VWS V14.01,2013-02-08 11:58:00,
2013-02-08 07:02:00,33.2,23.8,30.13,ENE,69,2.0,7.0,68,0.00,,---,0.00,VWS V14.01,2013-02-08 12:02:00,
2013-02-08 07:03:00,33.2,23.8,30.13,ENE,66,4.0,7.0,68,0.00,,---,0.00,VWS V14.01,2013-02-08 12:03:00,
2013-02-08 07:07:00,33.2,23.8,30.13,NE,56,5.0,10.0,68,0.00,,---,0.00,VWS V14.01,2013-02-08 12:07:00,
2013-02-08 07:08:00,33.2,23.8,30.13,ENE,58,5.0,10.0,68,0.00,,---,0.00,VWS V14.01,2013-02-08 12:08:00,
2013-02-08 07:12:00,33.2,23.5,30.13,ENE,68,12.0,13.0,67,0.00,,---,0.00,VWS V14.01,2013-02-08 12:12:00,
2013-02-08 07:13:00,33.2,23.5,30.13,NE,42,7.0,13.0,67,0.00,,---,0.00,VWS V14.01,2013-02-08 12:13:00,
2013-02-08 07:17:00,33.2,23.5,30.11,NE,54,11.0,11.0,67,0.00,,---,0.00,VWS V14.01,2013-02-08 12:17:00,
2013-02-08 07:18:00,33.2,23.5,30.11,SSE,165,7.0,12.0,67,0.00,,---,0.00,VWS V14.01,2013-02-08 12:18:00,
2013-02-08 07:22:00,33.2,23.5,30.11,East,88,2.0,12.0,67,0.00,,---,0.00,VWS V14.01,2013-02-08 12:22:00,
2013-02-08 07:23:00,33.2,23.5,30.11,NE,35,12.0,12.0,67,0.00,,---,0.00,VWS V14.01,2013-02-08 12:23:00,
2013-02-08 07:27:00,33.2,23.5,30.11,NNE,30,3.0,12.0,67,0.00,,---,0.00,VWS V14.01,2013-02-08 12:27:00,
2013-02-08 07:28:00,33.2,23.5,30.11,ENE,75,7.0,12.0,67,0.00,,---,0.00,VWS V14.01,2013-02-08 12:28:00,
2013-02-08 07:32:00,33.2,23.1,30.12,ENE,69,4.0,9.0,66,0.00,,---,0.00,VWS V14.01,2013-02-08 12:32:00,
2013-02-08 07:33:00,33.2,23.1,30.12,ENE,78,6.0,9.0,66,0.00,,---,0.00,VWS V14.01,2013-02-08 12:33:00,
2013-02-08 07:34:00,33.2,23.1,30.12,East,82,7.0,9.0,66,0.00,,---,0.00,VWS V14.01,2013-02-08 12:34:00,
2013-02-08 07:37:00,33.2,23.1,30.12,ESE,104,4.0,10.0,66,0.00,,---,0.00,VWS V14.01,2013-02-08 12:37:00,
2013-02-08 07:38:00,33.2,23.1,30.12,SE,131,6.0,10.0,66,0.00,,---,0.00,VWS V14.01,2013-02-08 12:38:00,
2013-02-08 07:39:00,33.2,23.1,30.12,ESE,121,0.0,10.0,66,0.00,,---,0.00,VWS V14.01,2013-02-08 12:39:00,
2013-02-08 07:43:00,33.1,23.4,30.12,ENE,64,2.0,14.0,67,0.00,,---,0.00,VWS V14.01,2013-02-08 12:43:00,
2013-02-08 07:44:00,33.1,23.4,30.12,ENE,62,0.0,14.0,67,0.00,,---,0.00,VWS V14.01,2013-02-08 12:44:00,
2013-02-08 07:48:00,32.8,23.8,30.12,NE,55,6.0,20.0,69,0.00,,---,0.00,VWS V14.01,2013-02-08 12:48:00,
2013-02-08 07:49:00,32.7,24.0,30.12,NNE,24,4.0,20.0,70,0.00,,---,0.00,VWS V14.01,2013-02-08 12:49:00,
2013-02-08 07:53:00,32.5,25.1,30.12,NNE,17,2.0,20.0,74,0.00,,---,0.00,VWS V14.01,2013-02-08 12:53:00,
2013-02-08 07:54:00,32.5,25.1,30.12,East,86,2.0,20.0,74,0.00,,---,0.00,VWS V14.01,2013-02-08 12:54:00,
2013-02-08 07:58:00,32.4,26.0,30.12,East,83,5.0,20.0,77,0.00,,---,0.00,VWS V14.01,2013-02-08 12:58:00,
2013-02-08 07:59:00,32.4,26.3,30.12,NNE,32,5.0,20.0,78,0.00,,---,0.00,VWS V14.01,2013-02-08 12:59:00,
2013-02-08 08:03:00,32.2,26.7,30.12,East,92,8.0,8.0,80,0.00,,---,0.00,VWS V14.01,2013-02-08 13:03:00,
2013-02-08 08:04:00,32.2,27.0,30.12,ENE,71,5.0,8.0,81,0.00,,---,0.00,VWS V14.01,2013-02-08 13:04:00,
2013-02-08 08:08:00,32.2,27.6,30.12,SSE,167,1.0,11.0,83,0.00,,---,0.00,VWS V14.01,2013-02-08 13:08:00,
2013-02-08 08:09:00,32.2,27.9,30.12,ESE,112,6.0,11.0,84,0.00,,---,0.00,VWS V14.01,2013-02-08 13:09:00,
2013-02-08 08:13:00,32.2,28.5,30.12,East,86,13.0,17.0,86,0.00,,---,0.00,VWS V14.01,2013-02-08 13:13:00,
2013-02-08 08:14:00,32.2,28.5,30.12,East,92,11.0,17.0,86,0.00,,---,0.00,VWS V14.01,2013-02-08 13:14:00,
2013-02-08 08:18:00,32.1,29.0,30.11,East,93,8.0,8.0,88,0.00,,---,0.00,VWS V14.01,2013-02-08 13:18:00,
2013-02-08 08:19:00,32.1,29.0,30.11,ENE,78,2.0,10.0,88,0.00,,---,0.00,VWS V14.01,2013-02-08 13:19:00,
2013-02-08 08:23:00,32.1,29.5,30.11,NNE,23,2.0,10.0,90,0.00,,---,0.00,VWS V14.01,2013-02-08 13:23:00,
2013-02-08 08:24:00,32.1,29.5,30.11,East,97,6.0,10.0,90,0.00,,---,0.00,VWS V14.01,2013-02-08 13:24:00,
2013-02-08 08:28:00,31.9,29.6,30.11,NE,41,6.0,12.0,91,0.00,,---,0.00,VWS V14.01,2013-02-08 13:28:00,
2013-02-08 08:29:00,31.9,29.6,30.11,NNE,31,11.0,12.0,91,0.00,,---,0.00,VWS V14.01,2013-02-08 13:29:00,
2013-02-08 08:33:00,31.9,29.8,30.10,East,82,4.0,10.0,92,0.00,,---,0.00,VWS V14.01,2013-02-08 13:33:00,
2013-02-08 08:34:00,31.9,29.8,30.10,East,97,3.0,10.0,92,0.00,,---,0.00,VWS V14.01,2013-02-08 13:34:00,
2013-02-08 08:38:00,31.8,30.0,30.10,ENE,78,2.0,10.0,93,0.00,,---,0.00,VWS V14.01,2013-02-08 13:38:00,
2013-02-08 08:39:00,31.8,30.3,30.10,East,99,5.0,16.0,94,0.00,,---,0.00,VWS V14.01,2013-02-08 13:39:00,
2013-02-08 08:43:00,31.8,30.5,30.10,East,88,7.0,16.0,95,0.00,,---,0.00,VWS V14.01,2013-02-08 13:43:00,
2013-02-08 08:44:00,31.8,30.5,30.10,ENE,78,6.0,16.0,95,0.00,,---,0.00,VWS V14.01,2013-02-08 13:44:00,
2013-02-08 08:45:00,31.8,30.5,30.10,East,86,2.0,16.0,95,0.00,,---,0.00,VWS V14.01,2013-02-08 13:45:00,
2013-02-08 08:48:00,31.8,30.8,30.10,ENE,68,3.0,14.0,96,0.00,,---,0.00,VWS V14.01,2013-02-08 13:48:00,
2013-02-08 08:49:00,31.8,30.8,30.10,East,86,7.0,14.0,96,0.00,,---,0.00,VWS V14.01,2013-02-08 13:49:00,
2013-02-08 08:50:00,31.8,30.8,30.10,NE,52,9.0,14.0,96,0.00,,---,0.00,VWS V14.01,2013-02-08 13:50:00,
2013-02-08 08:53:00,31.6,30.9,30.10,ENE,78,2.0,14.0,97,0.00,,---,0.00,VWS V14.01,2013-02-08 13:53:00,
2013-02-08 08:54:00,31.6,30.9,30.10,NE,41,2.0,14.0,97,0.00,,---,0.00,VWS V14.01,2013-02-08 13:54:00,
2013-02-08 08:55:00,31.6,30.9,30.10,NNE,25,1.0,14.0,97,0.00,,---,0.00,VWS V14.01,2013-02-08 13:55:00,
2013-02-08 08:59:00,31.6,31.1,30.10,ENE,64,6.0,14.0,98,0.00,,---,0.00,VWS V14.01,2013-02-08 13:59:00,
2013-02-08 09:00:00,31.6,31.1,30.08,ENE,62,7.0,14.0,98,0.00,,---,0.00,VWS V14.01,2013-02-08 14:00:00,
2013-02-08 09:04:00,31.6,31.4,30.08,ENE,69,4.0,11.0,99,0.00,,---,0.00,VWS V14.01,2013-02-08 14:04:00,
2013-02-08 09:05:00,31.6,31.4,30.08,SE,128,8.0,11.0,99,0.00,,---,0.00,VWS V14.01,2013-02-08 14:05:00,
2013-02-08 09:09:00,31.6,31.4,30.08,ENE,64,2.0,11.0,99,0.00,,---,0.00,VWS V14.01,2013-02-08 14:09:00,
2013-02-08 09:10:00,31.6,31.4,30.08,NE,45,2.0,11.0,99,0.00,,---,0.00,VWS V14.01,2013-02-08 14:10:00,
2013-02-08 09:14:00,31.6,31.6,30.08,SSE,152,6.0,13.0,100,0.00,,---,0.00,VWS V14.01,2013-02-08 14:14:00,
2013-02-08 09:15:00,31.6,31.6,30.08,East,82,5.0,13.0,100,0.00,,---,0.00,VWS V14.01,2013-02-08 14:15:00,
2013-02-08 09:19:00,31.6,31.6,30.08,ENE,62,2.0,11.0,100,0.00,,---,0.00,VWS V14.01,2013-02-08 14:19:00,
2013-02-08 09:20:00,31.6,31.6,30.08,East,86,10.0,11.0,100,0.00,,---,0.00,VWS V14.01,2013-02-08 14:20:00,
2013-02-08 09:24:00,31.6,31.6,30.08,ENE,65,2.0,11.0,100,0.00,,---,0.00,VWS V14.01,2013-02-08 14:24:00,
2013-02-08 09:25:00,31.6,31.6,30.08,NE,56,3.0,11.0,100,0.00,,---,0.00,VWS V14.01,2013-02-08 14:25:00,
2013-02-08 09:26:00,31.6,31.6,30.08,NE,34,11.0,11.0,100,0.00,,---,0.00,VWS V14.01,2013-02-08 14:26:00,
2013-02-08 09:29:00,31.5,31.5,30.08,NNE,20,1.0,17.0,100,0.00,,---,0.00,VWS V14.01,2013-02-08 14:29:00,
2013-02-08 09:30:00,31.5,31.5,30.07,ESE,114,5.0,17.0,100,0.00,,---,0.00,VWS V14.01,2013-02-08 14:30:00,
2013-02-08 09:31:00,31.6,31.6,30.07,SE,126,5.0,12.0,100,0.00,,---,0.00,VWS V14.01,2013-02-08 14:31:00,
2013-02-08 09:34:00,31.6,31.6,30.07,NE,47,3.0,12.0,100,0.00,,---,0.00,VWS V14.01,2013-02-08 14:34:00,
2013-02-08 09:35:00,31.6,31.6,30.07,NE,54,0.0,12.0,100,0.00,,---,0.00,VWS V14.01,2013-02-08 14:35:00,
2013-02-08 09:36:00,31.6,31.6,30.07,ENE,62,4.0,12.0,100,0.00,,---,0.00,VWS V14.01,2013-02-08 14:36:00,
2013-02-08 09:39:00,31.5,31.5,30.07,ENE,76,4.0,12.0,100,0.00,,---,0.00,VWS V14.01,2013-02-08 14:39:00,
2013-02-08 09:40:00,31.5,31.5,30.07,East,82,4.0,12.0,100,0.00,,---,0.00,VWS V14.01,2013-02-08 14:40:00,
2013-02-08 09:41:00,31.5,31.5,30.07,ESE,104,7.0,12.0,100,0.00,,---,0.00,VWS V14.01,2013-02-08 14:41:00,
2013-02-08 09:44:00,31.5,31.5,30.07,East,92,2.0,12.0,100,0.00,,---,0.00,VWS V14.01,2013-02-08 14:44:00,
2013-02-08 09:45:00,31.5,31.5,30.06,NNW,346,9.0,12.0,100,0.00,,---,0.00,VWS V14.01,2013-02-08 14:45:00,
2013-02-08 09:46:00,31.5,31.5,30.06,SE,133,7.0,7.0,100,0.00,,---,0.00,VWS V14.01,2013-02-08 14:46:00,
2013-02-08 09:49:00,31.6,31.6,30.06,NE,49,8.0,12.0,100,0.00,,---,0.00,VWS V14.01,2013-02-08 14:49:00,
2013-02-08 09:50:00,31.5,31.5,30.06,ESE,119,1.0,12.0,100,0.00,,---,0.00,VWS V14.01,2013-02-08 14:50:00,
2013-02-08 09:51:00,31.5,31.5,30.06,ENE,68,2.0,12.0,100,0.00,,---,0.00,VWS V14.01,2013-02-08 14:51:00,
2013-02-08 09:55:00,31.5,31.5,30.06,East,93,6.0,12.0,100,0.00,,---,0.00,VWS V14.01,2013-02-08 14:55:00,
2013-02-08 09:56:00,31.5,31.5,30.06,NE,35,4.0,12.0,100,0.00,,---,0.00,VWS V14.01,2013-02-08 14:56:00,
2013-02-08 10:00:00,31.5,31.5,30.05,ENE,78,5.0,12.0,100,0.00,,---,0.00,VWS V14.01,2013-02-08 15:00:00,
2013-02-08 10:01:00,31.5,31.5,30.05,ENE,58,1.0,2.0,100,0.00,,---,0.00,VWS V14.01,2013-02-08 15:01:00,
2013-02-08 10:05:00,31.5,31.5,30.05,NE,54,5.0,10.0,100,0.00,,---,0.00,VWS V14.01,2013-02-08 15:05:00,
2013-02-08 10:06:00,31.5,31.5,30.05,NE,55,10.0,14.0,100,0.00,,---,0.00,VWS V14.01,2013-02-08 15:06:00,
2013-02-08 10:10:00,31.5,31.5,30.05,NE,45,2.0,14.0,100,0.00,,---,0.00,VWS V14.01,2013-02-08 15:10:00,
2013-02-08 10:11:00,31.5,31.5,30.05,NE,52,4.0,14.0,100,0.00,,---,0.00,VWS V14.01,2013-02-08 15:11:00,
2013-02-08 10:15:00,31.5,31.5,30.04,NE,55,17.0,17.0,100,0.00,,---,0.00,VWS V14.01,2013-02-08 15:15:00,
2013-02-08 10:16:00,31.5,31.5,30.04,ENE,61,3.0,10.0,100,0.00,,---,0.00,VWS V14.01,2013-02-08 15:16:00,
2013-02-08 10:20:00,31.3,31.3,30.04,ENE,78,7.0,11.0,100,0.00,,---,0.00,VWS V14.01,2013-02-08 15:20:00,
2013-02-08 10:21:00,31.3,31.3,30.04,ENE,61,3.0,11.0,100,0.00,,---,0.00,VWS V14.01,2013-02-08 15:21:00,
2013-02-08 10:22:00,31.3,31.3,30.04,ENE,62,7.0,11.0,100,0.00,,---,0.00,VWS V14.01,2013-02-08 15:22:00,
2013-02-08 10:25:00,31.3,31.3,30.04,ENE,78,10.0,14.0,100,0.00,,---,0.00,VWS V14.01,2013-02-08 15:25:00,
2013-02-08 10:26:00,31.3,31.3,30.04,ENE,65,1.0,14.0,100,0.00,,---,0.00,VWS V14.01,2013-02-08 15:26:00,
2013-02-08 10:27:00,31.3,31.3,30.04,ENE,65,2.0,14.0,100,0.00,,---,0.00,VWS V14.01,2013-02-08 15:27:00,
2013-02-08 10:30:00,31.3,31.3,30.03,ENE,59,3.0,14.0,100,0.00,,---,0.00,VWS V14.01,2013-02-08 15:30:00,
2013-02-08 10:31:00,31.3,31.3,30.03,NNE,14,5.0,9.0,100,0.00,,---,0.00,VWS V14.01,2013-02-08 15:31:00,
2013-02-08 10:32:00,31.3,31.3,30.03,NNE,14,5.0,9.0,100,0.00,,---,0.00,VWS V14.01,2013-02-08 15:32:00,
2013-02-08 10:35:00,31.3,31.3,30.03,NNE,13,6.0,11.0,100,0.00,,---,0.00,VWS V14.01,2013-02-08 15:35:00,
2013-02-08 10:36:00,31.3,31.3,30.03,NNE,13,6.0,11.0,100,0.00,,---,0.00,VWS V14.01,2013-02-08 15:36:00,
2013-02-08 10:37:00,31.3,31.3,30.03,North,8,5.0,11.0,100,0.00,,---,0.00,VWS V14.01,2013-02-08 15:37:00,
2013-02-08 10:41:00,31.2,31.2,30.03,ENE,69,6.0,11.0,100,0.00,,---,0.00,VWS V14.01,2013-02-08 15:41:00,
2013-02-08 10:42:00,31.2,31.2,30.03,ENE,65,8.0,12.0,100,0.00,,---,0.00,VWS V14.01,2013-02-08 15:42:00,
2013-02-08 10:46:00,31.2,31.2,30.02,ENE,62,10.0,10.0,100,0.00,,---,0.00,VWS V14.01,2013-02-08 15:46:00,
2013-02-08 10:47:00,31.2,31.2,30.02,NE,42,3.0,10.0,100,0.00,,---,0.00,VWS V14.01,2013-02-08 15:47:00,
2013-02-08 10:51:00,31.2,31.2,30.02,NE,38,5.0,10.0,100,0.00,,---,0.00,VWS V14.01,2013-02-08 15:51:00,
2013-02-08 10:52:00,31.2,31.2,30.02,NNE,13,10.0,10.0,100,0.00,,---,0.00,VWS V14.01,2013-02-08 15:52:00,
2013-02-08 10:56:00,31.2,31.2,30.02,NE,52,13.0,13.0,100,0.00,,---,0.00,VWS V14.01,2013-02-08 15:56:00,
2013-02-08 10:57:00,31.2,31.2,30.02,ENE,61,6.0,13.0,100,0.00,,---,0.00,VWS V14.01,2013-02-08 15:57:00,
2013-02-08 11:01:00,31.2,31.2,30.00,ENE,61,13.0,13.0,100,0.00,,---,0.00,VWS V14.01,2013-02-08 16:01:00,
2013-02-08 11:02:00,31.2,31.2,30.00,NE,41,9.0,13.0,100,0.00,,---,0.00,VWS V14.01,2013-02-08 16:02:00,
2013-02-08 11:06:00,31.2,31.2,30.00,NNE,24,11.0,14.0,100,0.00,,---,0.00,VWS V14.01,2013-02-08 16:06:00,
2013-02-08 11:07:00,31.2,31.2,30.00,ENE,59,2.0,14.0,100,0.00,,---,0.00,VWS V14.01,2013-02-08 16:07:00,
2013-02-08 11:11:00,31.2,31.2,30.00,ENE,65,4.0,14.0,100,0.00,,---,0.00,VWS V14.01,2013-02-08 16:11:00,
2013-02-08 11:12:00,31.2,31.2,30.00,NNE,23,13.0,14.0,100,0.00,,---,0.00,VWS V14.01,2013-02-08 16:12:00,
2013-02-08 11:16:00,31.2,31.2,29.98,NE,44,6.0,13.0,100,0.00,,---,0.00,VWS V14.01,2013-02-08 16:16:00,
2013-02-08 11:17:00,31.2,31.2,29.98,ENE,69,11.0,13.0,100,0.00,,---,0.00,VWS V14.01,2013-02-08 16:17:00,
2013-02-08 11:21:00,31.2,31.2,29.98,East,96,7.0,14.0,100,0.00,,---,0.00,VWS V14.01,2013-02-08 16:21:00,
2013-02-08 11:22:00,31.2,31.2,29.98,NNE,21,10.0,14.0,100,0.00,,---,0.00,VWS V14.01,2013-02-08 16:22:00,
2013-02-08 11:27:00,31.3,31.3,29.98,NE,40,7.0,14.0,100,0.00,,---,0.00,VWS V14.01,2013-02-08 16:27:00,
2013-02-08 11:32:00,31.3,31.3,29.96,NNE,31,5.0,7.0,100,0.00,,---,0.00,VWS V14.01,2013-02-08 16:32:00,
2013-02-08 11:33:00,31.3,31.3,29.96,NE,40,5.0,7.0,100,0.00,,---,0.00,VWS V14.01,2013-02-08 16:33:00,
2013-02-08 11:37:00,31.3,31.3,29.96,NE,44,0.0,10.0,100,0.00,,---,0.00,VWS V14.01,2013-02-08 16:37:00,
2013-02-08 11:38:00,31.3,31.3,29.96,NE,40,4.0,10.0,100,0.00,,---,0.00,VWS V14.01,2013-02-08 16:38:00,
2013-02-08 11:42:00,31.3,31.3,29.96,NE,35,7.0,12.0,100,0.00,,---,0.00,VWS V14.01,2013-02-08 16:42:00,
2013-02-08 11:43:00,31.3,31.3,29.96,NE,35,7.0,12.0,100,0.00,,---,0.00,VWS V14.01,2013-02-08 16:43:00,
2013-02-08 11:47:00,31.3,31.3,29.95,North,7,5.0,10.0,100,0.00,,---,0.00,VWS V14.01,2013-02-08 16:47:00,
2013-02-08 11:48:00,31.3,31.3,29.95,NNE,28,7.0,10.0,100,0.00,,---,0.00,VWS V14.01,2013-02-08 16:48:00,
2013-02-08 11:52:00,31.3,31.3,29.95,ENE,58,8.0,13.0,100,0.00,,---,0.00,VWS V14.01,2013-02-08 16:52:00,
2013-02-08 11:53:00,31.3,31.3,29.95,ENE,58,8.0,13.0,100,0.00,,---,0.00,VWS V14.01,2013-02-08 16:53:00,
2013-02-08 11:57:00,31.3,31.3,29.95,NE,44,8.0,13.0,100,0.00,,---,0.00,VWS V14.01,2013-02-08 16:57:00,
2013-02-08 11:58:00,31.3,31.3,29.95,NE,44,8.0,13.0,100,0.00,,---,0.00,VWS V14.01,2013-02-08 16:58:00,
2013-02-08 12:03:00,31.3,31.3,29.93,SE,138,2.0,7.0,100,0.00,,---,0.00,VWS V14.01,2013-02-08 17:03:00,
2013-02-08 12:08:00,31.3,31.3,29.93,ENE,71,6.0,9.0,100,0.00,,---,0.00,VWS V14.01,2013-02-08 17:08:00,
2013-02-08 12:09:00,31.3,31.3,29.93,ENE,75,8.0,9.0,100,0.00,,---,0.00,VWS V14.01,2013-02-08 17:09:00,
2013-02-08 12:13:00,31.5,31.5,29.93,NE,54,2.0,12.0,100,0.00,,---,0.00,VWS V14.01,2013-02-08 17:13:00,
2013-02-08 12:14:00,31.5,31.5,29.93,NE,52,5.0,12.0,100,0.00,,---,0.00,VWS V14.01,2013-02-08 17:14:00,
2013-02-08 12:18:00,31.5,31.5,29.92,NE,38,7.0,12.0,100,0.00,,---,0.00,VWS V14.01,2013-02-08 17:18:00,
2013-02-08 12:19:00,31.5,31.5,29.92,NE,44,10.0,12.0,100,0.00,,---,0.00,VWS V14.01,2013-02-08 17:19:00,
2013-02-08 12:23:00,31.5,31.5,29.92,ENE,62,14.0,18.0,100,0.00,,---,0.00,VWS V14.01,2013-02-08 17:23:00,
2013-02-08 12:24:00,31.5,31.5,29.92,East,83,13.0,18.0,100,0.00,,---,0.00,VWS V14.01,2013-02-08 17:24:00,
2013-02-08 12:29:00,31.5,31.5,29.92,ENE,68,10.0,18.0,100,0.00,,---,0.00,VWS V14.01,2013-02-08 17:29:00,
2013-02-08 12:30:00,31.5,31.5,29.91,NE,42,5.0,18.0,100,0.00,,---,0.00,VWS V14.01,2013-02-08 17:30:00,
2013-02-08 12:34:00,31.5,31.5,29.91,NNE,13,1.0,16.0,100,0.00,,---,0.00,VWS V14.01,2013-02-08 17:34:00,
2013-02-08 12:35:00,31.5,31.5,29.91,ESE,116,6.0,16.0,100,0.00,,---,0.00,VWS V14.01,2013-02-08 17:35:00,
2013-02-08 12:39:00,31.5,31.5,29.91,ENE,62,0.0,16.0,100,0.00,,---,0.00,VWS V14.01,2013-02-08 17:39:00,
2013-02-08 12:40:00,31.5,31.5,29.91,NE,55,3.0,16.0,100,0.00,,---,0.00,VWS V14.01,2013-02-08 17:40:00,
2013-02-08 12:44:00,31.5,31.5,29.91,NNE,31,10.0,16.0,100,0.00,,---,0.00,VWS V14.01,2013-02-08 17:44:00,
2013-02-08 12:45:00,31.5,31.5,29.89,ENE,69,9.0,16.0,100,0.00,,---,0.00,VWS V14.01,2013-02-08 17:45:00,
2013-02-08 12:49:00,31.6,31.6,29.89,NE,52,9.0,11.0,100,0.00,,---,0.00,VWS V14.01,2013-02-08 17:49:00,
2013-02-08 12:50:00,31.6,31.6,29.89,NNE,32,9.0,11.0,100,0.00,,---,0.00,VWS V14.01,2013-02-08 17:50:00,
2013-02-08 12:54:00,31.6,31.6,29.89,ENE,61,2.0,11.0,100,0.00,,---,0.00,VWS V14.01,2013-02-08 17:54:00,
2013-02-08 12:55:00,31.6,31.6,29.89,NE,55,5.0,11.0,100,0.00,,---,0.00,VWS V14.01,2013-02-08 17:55:00,
2013-02-08 12:59:00,31.6,31.6,29.89,ENE,59,3.0,11.0,100,0.00,,---,0.00,VWS V14.01,2013-02-08 17:59:00,
2013-02-08 13:00:00,31.6,31.6,29.88,East,80,9.0,11.0,100,0.00,,---,0.00,VWS V14.01,2013-02-08 18:00:00,
2013-02-08 13:04:00,31.8,31.8,29.88,ENE,59,12.0,12.0,100,0.00,,---,0.00,VWS V14.01,2013-02-08 18:04:00,
2013-02-08 13:05:00,31.8,31.8,29.88,NE,37,8.0,12.0,100,0.00,,---,0.00,VWS V14.01,2013-02-08 18:05:00,
2013-02-08 13:10:00,31.8,31.8,29.88,ENE,69,12.0,14.0,100,0.00,,---,0.00,VWS V14.01,2013-02-08 18:10:00,
2013-02-08 13:15:00,31.8,31.8,29.85,East,99,6.0,14.0,100,0.00,,---,0.00,VWS V14.01,2013-02-08 18:15:00,
2013-02-08 13:20:00,31.8,31.8,29.85,NNE,25,6.0,11.0,100,0.00,,---,0.00,VWS V14.01,2013-02-08 18:20:00,
2013-02-08 13:25:00,31.8,31.8,29.85,ENE,76,3.0,13.0,100,0.00,,---,0.00,VWS V14.01,2013-02-08 18:25:00,
2013-02-08 13:26:00,31.8,31.8,29.85,East,82,3.0,13.0,100,0.00,,---,0.00,VWS V14.01,2013-02-08 18:26:00,
2013-02-08 13:31:00,31.8,31.8,29.83,East,85,8.0,8.0,100,0.00,,---,0.00,VWS V14.01,2013-02-08 18:31:00,
2013-02-08 13:36:00,31.9,31.9,29.83,NE,38,8.0,12.0,100,0.00,,---,0.00,VWS V14.01,2013-02-08 18:36:00,
2013-02-08 13:37:00,31.9,31.9,29.83,NE,38,5.0,12.0,100,0.00,,---,0.00,VWS V14.01,2013-02-08 18:37:00,
2013-02-08 13:38:00,31.9,31.9,29.83,ENE,62,8.0,12.0,100,0.00,,---,0.00,VWS V14.01,2013-02-08 18:38:00,
2013-02-08 13:41:00,31.9,31.9,29.83,NE,34,6.0,12.0,100,0.00,,---,0.00,VWS V14.01,2013-02-08 18:41:00,
2013-02-08 13:42:00,31.9,31.9,29.83,NE,41,3.0,12.0,100,0.00,,---,0.00,VWS V14.01,2013-02-08 18:42:00,
2013-02-08 13:43:00,31.9,31.9,29.83,ENE,59,11.0,12.0,100,0.00,,---,0.00,VWS V14.01,2013-02-08 18:43:00,
2013-02-08 13:47:00,31.9,31.9,29.82,North,8,8.0,8.0,100,0.00,,---,0.00,VWS V14.01,2013-02-08 18:47:00,
2013-02-08 13:48:00,31.9,31.9,29.82,ENE,64,11.0,11.0,100,0.00,,---,0.00,VWS V14.01,2013-02-08 18:48:00,
2013-02-08 13:52:00,31.9,31.9,29.82,NE,45,6.0,13.0,100,0.00,,---,0.00,VWS V14.01,2013-02-08 18:52:00,
2013-02-08 13:53:00,31.9,31.9,29.82,NE,35,1.0,13.0,100,0.00,,---,0.00,VWS V14.01,2013-02-08 18:53:00,
2013-02-08 13:57:00,31.9,31.9,29.82,ENE,59,6.0,15.0,100,0.00,,---,0.00,VWS V14.01,2013-02-08 18:57:00,
2013-02-08 13:58:00,31.9,31.9,29.82,NE,45,12.0,15.0,100,0.00,,---,0.00,VWS V14.01,2013-02-08 18:58:00,
2013-02-08 14:02:00,32.1,32.1,29.81,NNE,30,10.0,16.0,100,0.00,,---,0.00,VWS V14.01,2013-02-08 19:02:00,
2013-02-08 14:03:00,32.1,32.1,29.81,NE,54,16.0,16.0,100,0.00,,---,0.00,VWS V14.01,2013-02-08 19:03:00,
2013-02-08 14:07:00,32.1,32.1,29.81,NE,44,6.0,16.0,100,0.00,,---,0.00,VWS V14.01,2013-02-08 19:07:00,
2013-02-08 14:08:00,32.1,32.1,29.81,North,0,11.0,16.0,100,0.00,,---,0.00,VWS V14.01,2013-02-08 19:08:00,
2013-02-08 14:12:00,32.1,32.1,29.81,East,97,10.0,16.0,100,0.00,,---,0.00,VWS V14.01,2013-02-08 19:12:00,
2013-02-08 14:14:00,32.1,32.1,29.81,ESE,102,4.0,16.0,100,0.00,,---,0.00,VWS V14.01,2013-02-08 19:14:00,
2013-02-08 14:17:00,32.1,32.1,29.79,NNE,23,6.0,11.0,100,0.00,,---,0.00,VWS V14.01,2013-02-08 19:17:00,
2013-02-08 14:18:00,32.1,32.1,29.79,ENE,75,3.0,12.0,100,0.00,,---,0.00,VWS V14.01,2013-02-08 19:18:00,
2013-02-08 14:19:00,32.1,32.1,29.79,ENE,72,6.0,12.0,100,0.00,,---,0.00,VWS V14.01,2013-02-08 19:19:00,
2013-02-08 14:22:00,32.1,32.1,29.79,ENE,58,3.0,12.0,100,0.00,,---,0.00,VWS V14.01,2013-02-08 19:22:00,
2013-02-08 14:23:00,32.1,32.1,29.79,NNE,31,9.0,12.0,100,0.00,,---,0.00,VWS V14.01,2013-02-08 19:23:00,
2013-02-08 14:24:00,32.1,32.1,29.79,NE,44,4.0,12.0,100,0.00,,---,0.00,VWS V14.01,2013-02-08 19:24:00,
2013-02-08 14:27:00,32.1,32.1,29.79,NE,51,7.0,17.0,100,0.00,,---,0.00,VWS V14.01,2013-02-08 19:27:00,
2013-02-08 14:28:00,32.1,32.1,29.79,NE,55,5.0,17.0,100,0.00,,---,0.00,VWS V14.01,2013-02-08 19:28:00,
2013-02-08 14:29:00,32.1,32.1,29.79,ENE,76,12.0,17.0,100,0.00,,---,0.00,VWS V14.01,2013-02-08 19:29:00,
2013-02-08 14:32:00,32.1,32.1,29.77,ENE,64,10.0,10.0,100,0.00,,---,0.00,VWS V14.01,2013-02-08 19:32:00,
2013-02-08 14:33:00,32.1,32.1,29.77,ENE,72,7.0,10.0,100,0.00,,---,0.00,VWS V14.01,2013-02-08 19:33:00,
2013-02-08 14:34:00,32.1,32.1,29.77,NNE,28,3.0,10.0,100,0.00,,---,0.00,VWS V14.01,2013-02-08 19:34:00,
2013-02-08 14:37:00,32.2,32.2,29.77,East,89,7.0,19.0,100,0.00,,---,0.00,VWS V14.01,2013-02-08 19:37:00,
2013-02-08 14:38:00,32.2,32.2,29.77,NE,51,6.0,19.0,100,0.00,,---,0.00,VWS V14.01,2013-02-08 19:38:00,
2013-02-08 14:40:00,32.1,32.1,29.77,NE,54,7.0,19.0,100,0.00,,---,0.00,VWS V14.01,2013-02-08 19:40:00,
2013-02-08 14:42:00,32.2,32.2,29.77,NE,42,9.0,19.0,100,0.00,,---,0.00,VWS V14.01,2013-02-08 19:42:00,
2013-02-08 14:43:00,32.1,32.1,29.77,North,11,3.0,19.0,100,0.00,,---,0.00,VWS V14.01,2013-02-08 19:43:00,
2013-02-08 14:45:00,32.1,32.1,29.75,NE,56,4.0,19.0,100,0.00,,---,0.00,VWS V14.01,2013-02-08 19:45:00,
2013-02-08 14:47:00,32.2,32.2,29.75,ENE,69,3.0,11.0,100,0.00,,---,0.00,VWS V14.01,2013-02-08 19:47:00,
2013-02-08 14:48:00,32.2,32.2,29.75,North,357,2.0,11.0,100,0.00,,---,0.00,VWS V14.01,2013-02-08 19:48:00,
2013-02-08 14:50:00,32.2,32.2,29.75,ENE,64,12.0,12.0,100,0.00,,---,0.00,VWS V14.01,2013-02-08 19:50:00,
2013-02-08 14:52:00,32.2,32.2,29.75,North,1,7.0,12.0,100,0.00,,---,0.00,VWS V14.01,2013-02-08 19:52:00,
2013-02-08 14:53:00,32.2,32.2,29.75,ENE,68,7.0,12.0,100,0.00,,---,0.00,VWS V14.01,2013-02-08 19:53:00,
2013-02-08 14:55:00,32.1,32.1,29.75,NE,34,3.0,12.0,100,0.00,,---,0.00,VWS V14.01,2013-02-08 19:55:00,
2013-02-08 14:57:00,32.2,32.2,29.75,NE,41,10.0,12.0,100,0.00,,---,0.00,VWS V14.01,2013-02-08 19:57:00,
2013-02-08 14:58:00,32.2,32.2,29.75,NE,35,7.0,14.0,100,0.00,,---,0.00,VWS V14.01,2013-02-08 19:58:00,
2013-02-08 14:59:00,32.2,32.2,29.75,NE,35,7.0,14.0,100,0.00,,---,0.00,VWS V14.01,2013-02-08 19:59:00,
2013-02-08 15:00:00,32.2,32.2,29.73,NE,54,6.0,14.0,100,0.00,,---,0.00,VWS V14.01,2013-02-08 20:00:00,
2013-02-08 15:02:00,32.2,32.2,29.73,NNE,20,0.0,14.0,100,0.00,,---,0.00,VWS V14.01,2013-02-08 20:02:00,
2013-02-08 15:04:00,32.2,32.2,29.73,NNE,23,5.0,14.0,100,0.00,,---,0.00,VWS V14.01,2013-02-08 20:04:00,
2013-02-08 15:05:00,32.2,32.2,29.73,ENE,69,2.0,14.0,100,0.00,,---,0.00,VWS V14.01,2013-02-08 20:05:00,
2013-02-08 15:08:00,32.2,32.2,29.73,ENE,62,4.0,15.0,100,0.00,,---,0.00,VWS V14.01,2013-02-08 20:08:00,
2013-02-08 15:09:00,32.2,32.2,29.73,NNE,23,6.0,15.0,100,0.00,,---,0.00,VWS V14.01,2013-02-08 20:09:00,
2013-02-08 15:10:00,32.2,32.2,29.73,East,100,10.0,15.0,100,0.00,,---,0.00,VWS V14.01,2013-02-08 20:10:00,
2013-02-08 15:13:00,32.2,32.2,29.73,NNE,32,12.0,15.0,100,0.00,,---,0.00,VWS V14.01,2013-02-08 20:13:00,
2013-02-08 15:14:00,32.2,32.2,29.73,NNE,17,3.0,15.0,100,0.00,,---,0.00,VWS V14.01,2013-02-08 20:14:00,
2013-02-08 15:15:00,32.2,32.2,29.71,ENE,64,2.0,15.0,100,0.00,,---,0.00,VWS V14.01,2013-02-08 20:15:00,
2013-02-08 15:18:00,32.2,32.2,29.71,NE,48,7.0,11.0,100,0.00,,---,0.00,VWS V14.01,2013-02-08 20:18:00,
2013-02-08 15:19:00,32.2,32.2,29.71,ENE,61,6.0,11.0,100,0.00,,---,0.00,VWS V14.01,2013-02-08 20:19:00,
2013-02-08 15:20:00,32.2,32.2,29.71,North,11,4.0,11.0,100,0.00,,---,0.00,VWS V14.01,2013-02-08 20:20:00,
2013-02-08 15:23:00,32.2,32.2,29.71,NE,47,2.0,11.0,100,0.00,,---,0.00,VWS V14.01,2013-02-08 20:23:00,
2013-02-08 15:24:00,32.2,32.2,29.71,ENE,69,1.0,11.0,100,0.00,,---,0.00,VWS V14.01,2013-02-08 20:24:00,
2013-02-08 15:26:00,32.2,32.2,29.71,ENE,69,10.0,13.0,100,0.00,,---,0.00,VWS V14.01,2013-02-08 20:26:00,
2013-02-08 15:28:00,32.2,32.2,29.71,ENE,59,7.0,13.0,100,0.00,,---,0.00,VWS V14.01,2013-02-08 20:28:00,
2013-02-08 15:29:00,32.2,32.2,29.71,ENE,73,7.0,17.0,100,0.00,,---,0.00,VWS V14.01,2013-02-08 20:29:00,
2013-02-08 15:31:00,32.2,32.2,29.69,NE,55,10.0,10.0,100,0.00,,---,0.00,VWS V14.01,2013-02-08 20:31:00,
2013-02-08 15:33:00,32.2,32.2,29.69,ENE,64,3.0,12.0,100,0.00,,---,0.00,VWS V14.01,2013-02-08 20:33:00,
2013-02-08 15:34:00,32.2,32.2,29.69,ENE,59,14.0,16.0,100,0.00,,---,0.00,VWS V14.01,2013-02-08 20:34:00,
2013-02-08 15:35:00,32.2,32.2,29.69,ENE,69,10.0,16.0,100,0.00,,---,0.00,VWS V14.01,2013-02-08 20:35:00,
2013-02-08 15:36:00,32.2,32.2,29.69,NE,35,12.0,16.0,100,0.00,,---,0.00,VWS V14.01,2013-02-08 20:36:00,
2013-02-08 15:38:00,32.2,32.2,29.69,ENE,68,12.0,16.0,100,0.00,,---,0.00,VWS V14.01,2013-02-08 20:38:00,
2013-02-08 15:39:00,32.2,32.2,29.69,NNE,23,8.0,16.0,100,0.00,,---,0.00,VWS V14.01,2013-02-08 20:39:00,
2013-02-08 15:40:00,32.2,32.2,29.69,North,6,6.0,16.0,100,0.00,,---,0.00,VWS V14.01,2013-02-08 20:40:00,
2013-02-08 15:41:00,32.2,32.2,29.69,NE,51,6.0,16.0,100,0.00,,---,0.00,VWS V14.01,2013-02-08 20:41:00,
2013-02-08 15:43:00,32.2,32.2,29.69,NE,41,7.0,16.0,100,0.00,,---,0.00,VWS V14.01,2013-02-08 20:43:00,
2013-02-08 15:44:00,32.2,32.2,29.69,NE,44,12.0,16.0,100,0.00,,---,0.00,VWS V14.01,2013-02-08 20:44:00,
2013-02-08 15:45:00,32.2,32.2,29.67,NE,56,12.0,16.0,100,0.00,,---,0.00,VWS V14.01,2013-02-08 20:45:00,
2013-02-08 15:46:00,32.2,32.2,29.67,ENE,71,7.0,13.0,100,0.00,,---,0.00,VWS V14.01,2013-02-08 20:46:00,
2013-02-08 15:48:00,32.2,32.2,29.67,NE,48,16.0,16.0,100,0.00,,---,0.00,VWS V14.01,2013-02-08 20:48:00,
2013-02-08 15:50:00,32.2,32.2,29.67,ENE,65,6.0,16.0,100,0.00,,---,0.00,VWS V14.01,2013-02-08 20:50:00,
2013-02-08 15:51:00,32.2,32.2,29.67,NE,51,6.0,16.0,100,0.00,,---,0.00,VWS V14.01,2013-02-08 20:51:00,
2013-02-08 15:53:00,32.2,32.2,29.67,NE,56,15.0,17.0,100,0.01,,---,0.01,VWS V14.01,2013-02-08 20:53:00,
2013-02-08 15:55:00,32.2,32.2,29.67,NE,42,2.0,17.0,100,0.01,,---,0.01,VWS V14.01,2013-02-08 20:55:00,
2013-02-08 15:56:00,32.2,32.2,29.67,NE,38,12.0,17.0,100,0.01,,---,0.01,VWS V14.01,2013-02-08 20:56:00,
2013-02-08 15:58:00,32.2,32.2,29.67,NE,51,13.0,17.0,100,0.01,,---,0.01,VWS V14.01,2013-02-08 20:58:00,
2013-02-08 16:00:00,32.2,32.2,29.66,NNE,17,4.0,19.0,100,0.01,,---,0.01,VWS V14.01,2013-02-08 21:00:00,
2013-02-08 16:01:00,32.2,32.2,29.66,ENE,66,8.0,19.0,100,0.01,,---,0.01,VWS V14.01,2013-02-08 21:01:00,
2013-02-08 16:04:00,32.2,32.2,29.66,NNE,31,14.0,20.0,100,0.01,,---,0.01,VWS V14.01,2013-02-08 21:04:00,
2013-02-08 16:05:00,32.2,32.2,29.66,NNE,17,6.0,20.0,100,0.01,,---,0.01,VWS V14.01,2013-02-08 21:05:00,
2013-02-08 16:06:00,32.2,32.2,29.66,NE,42,14.0,20.0,100,0.01,,---,0.01,VWS V14.01,2013-02-08 21:06:00,
2013-02-08 16:09:00,32.2,32.2,29.66,NE,54,10.0,20.0,100,0.01,,---,0.01,VWS V14.01,2013-02-08 21:09:00,
2013-02-08 16:10:00,32.2,32.2,29.66,NE,35,6.0,20.0,100,0.01,,---,0.01,VWS V14.01,2013-02-08 21:10:00,
2013-02-08 16:11:00,32.2,32.2,29.66,NNE,30,10.0,20.0,100,0.01,,---,0.01,VWS V14.01,2013-02-08 21:11:00,
2013-02-08 16:12:00,32.2,32.2,29.66,ENE,69,13.0,20.0,100,0.01,,---,0.01,VWS V14.01,2013-02-08 21:12:00,
2013-02-08 16:14:00,32.2,32.2,29.66,NE,49,11.0,20.0,100,0.01,,---,0.01,VWS V14.01,2013-02-08 21:14:00,
2013-02-08 16:16:00,32.2,32.2,29.64,NE,40,10.0,10.0,100,0.01,,---,0.01,VWS V14.01,2013-02-08 21:16:00,
2013-02-08 16:17:00,32.2,32.2,29.64,NE,41,4.0,14.0,100,0.01,,---,0.01,VWS V14.01,2013-02-08 21:17:00,
2013-02-08 16:19:00,32.2,32.2,29.64,NNE,32,7.0,14.0,100,0.01,,---,0.01,VWS V14.01,2013-02-08 21:19:00,
2013-02-08 16:21:00,32.1,32.1,29.64,NE,49,11.0,16.0,100,0.01,,---,0.01,VWS V14.01,2013-02-08 21:21:00,
2013-02-08 16:22:00,32.1,32.1,29.64,NE,37,11.0,16.0,100,0.01,,---,0.01,VWS V14.01,2013-02-08 21:22:00,
2013-02-08 16:24:00,32.1,32.1,29.64,NNE,21,7.0,16.0,100,0.01,,---,0.01,VWS V14.01,2013-02-08 21:24:00,
2013-02-08 16:26:00,32.1,32.1,29.64,NE,38,6.0,16.0,100,0.01,,---,0.01,VWS V14.01,2013-02-08 21:26:00,
2013-02-08 16:27:00,32.1,32.1,29.64,NE,42,5.0,16.0,100,0.01,,---,0.01,VWS V14.01,2013-02-08 21:27:00,
2013-02-08 16:28:00,32.1,32.1,29.64,NNE,31,8.0,16.0,100,0.01,,---,0.01,VWS V14.01,2013-02-08 21:28:00,
2013-02-08 16:29:00,32.1,32.1,29.64,NNE,28,8.0,16.0,100,0.01,,---,0.01,VWS V14.01,2013-02-08 21:29:00,
2013-02-08 16:32:00,32.1,32.1,29.62,NE,44,7.0,12.0,100,0.01,,---,0.01,VWS V14.01,2013-02-08 21:32:00,
2013-02-08 16:33:00,32.1,32.1,29.62,ENE,65,10.0,12.0,100,0.01,,---,0.01,VWS V14.01,2013-02-08 21:33:00,
2013-02-08 16:34:00,32.1,32.1,29.62,NE,51,8.0,12.0,100,0.01,,---,0.01,VWS V14.01,2013-02-08 21:34:00,
2013-02-08 16:37:00,32.1,32.1,29.62,NE,51,14.0,15.0,100,0.01,,---,0.01,VWS V14.01,2013-02-08 21:37:00,
2013-02-08 16:38:00,32.1,32.1,29.62,NNE,13,2.0,15.0,100,0.01,,---,0.01,VWS V14.01,2013-02-08 21:38:00,
2013-02-08 16:39:00,32.1,32.1,29.62,NE,37,6.0,15.0,100,0.01,,---,0.01,VWS V14.01,2013-02-08 21:39:00,
2013-02-08 16:42:00,32.1,32.1,29.62,NNE,16,3.0,15.0,100,0.01,,---,0.01,VWS V14.01,2013-02-08 21:42:00,
2013-02-08 16:43:00,32.1,32.1,29.62,NNE,31,12.0,15.0,100,0.01,,---,0.01,VWS V14.01,2013-02-08 21:43:00,
2013-02-08 16:45:00,32.1,32.1,29.62,NE,47,7.0,15.0,100,0.01,,---,0.01,VWS V14.01,2013-02-08 21:45:00,
2013-02-08 16:47:00,32.1,32.1,29.63,NNE,32,5.0,12.0,100,0.01,,---,0.01,VWS V14.01,2013-02-08 21:47:00,
2013-02-08 16:48:00,32.1,32.1,29.63,NE,40,3.0,12.0,100,0.01,,---,0.01,VWS V14.01,2013-02-08 21:48:00,
2013-02-08 16:50:00,32.1,32.1,29.63,NE,45,6.0,12.0,100,0.02,,---,0.02,VWS V14.01,2013-02-08 21:50:00,
2013-02-08 16:52:00,32.1,32.1,29.63,NNE,24,11.0,14.0,100,0.02,,---,0.02,VWS V14.01,2013-02-08 21:52:00,
2013-02-08 16:54:00,32.1,32.1,29.63,NE,42,1.0,14.0,100,0.02,,---,0.02,VWS V14.01,2013-02-08 21:54:00,
2013-02-08 16:55:00,32.1,32.1,29.63,ESE,110,6.0,14.0,100,0.02,,---,0.02,VWS V14.01,2013-02-08 21:55:00,
2013-02-08 16:57:00,32.1,32.1,29.63,NNE,30,4.0,14.0,100,0.02,,---,0.02,VWS V14.01,2013-02-08 21:57:00,
2013-02-08 16:59:00,32.1,32.1,29.63,NE,52,17.0,17.0,100,0.02,,---,0.02,VWS V14.01,2013-02-08 21:59:00,
2013-02-08 17:00:00,32.1,32.1,29.62,NNE,28,8.0,17.0,100,0.02,,---,0.02,VWS V14.01,2013-02-08 22:00:00,
2013-02-08 17:02:00,32.1,32.1,29.62,NE,49,7.0,11.0,100,0.01,,---,0.02,VWS V14.01,2013-02-08 22:02:00,
2013-02-08 17:04:00,32.1,32.1,29.62,NNE,24,2.0,12.0,100,0.01,,---,0.02,VWS V14.01,2013-02-08 22:04:00,
2013-02-08 17:05:00,32.1,32.1,29.62,North,4,6.0,12.0,100,0.01,,---,0.02,VWS V14.01,2013-02-08 22:05:00,
2013-02-08 17:07:00,32.1,32.1,29.62,NNE,20,6.0,12.0,100,0.01,,---,0.02,VWS V14.01,2013-02-08 22:07:00,
2013-02-08 17:09:00,32.1,32.1,29.62,NE,37,6.0,12.0,100,0.01,,---,0.02,VWS V14.01,2013-02-08 22:09:00,
2013-02-08 17:10:00,32.1,32.1,29.62,NNE,31,9.0,12.0,100,0.01,,---,0.02,VWS V14.01,2013-02-08 22:10:00,
2013-02-08 17:12:00,32.1,32.1,29.62,NNE,31,8.0,12.0,100,0.01,,---,0.02,VWS V14.01,2013-02-08 22:12:00,
2013-02-08 17:14:00,32.1,32.1,29.62,NE,52,5.0,12.0,100,0.01,,---,0.02,VWS V14.01,2013-02-08 22:14:00,
2013-02-08 17:15:00,32.1,32.1,29.60,ENE,68,11.0,12.0,100,0.01,,---,0.02,VWS V14.01,2013-02-08 22:15:00,
2013-02-08 17:17:00,32.1,32.1,29.60,ENE,73,4.0,13.0,100,0.01,,---,0.02,VWS V14.01,2013-02-08 22:17:00,
2013-02-08 17:19:00,32.1,32.1,29.60,NE,37,11.0,13.0,100,0.01,,---,0.02,VWS V14.01,2013-02-08 22:19:00,
2013-02-08 17:20:00,32.1,32.1,29.60,NE,38,4.0,13.0,100,0.01,,---,0.02,VWS V14.01,2013-02-08 22:20:00,
2013-02-08 17:24:00,32.1,32.1,29.60,NE,45,10.0,13.0,100,0.01,,---,0.02,VWS V14.01,2013-02-08 22:24:00,
2013-02-08 17:25:00,32.1,32.1,29.60,NE,42,5.0,14.0,100,0.01,,---,0.02,VWS V14.01,2013-02-08 22:25:00,
2013-02-08 17:29:00,32.1,32.1,29.60,NE,44,5.0,14.0,100,0.01,,---,0.02,VWS V14.01,2013-02-08 22:29:00,
2013-02-08 17:30:00,32.1,32.1,29.60,NNE,28,5.0,14.0,100,0.01,,---,0.02,VWS V14.01,2013-02-08 22:30:00,
2013-02-08 17:34:00,32.1,32.1,29.60,NE,52,6.0,10.0,100,0.01,,---,0.02,VWS V14.01,2013-02-08 22:34:00,
2013-02-08 17:35:00,32.1,32.1,29.60,ENE,59,6.0,10.0,100,0.01,,---,0.02,VWS V14.01,2013-02-08 22:35:00,
2013-02-08 17:39:00,32.1,32.1,29.60,ENE,62,4.0,12.0,100,0.01,,---,0.02,VWS V14.01,2013-02-08 22:39:00,
2013-02-08 17:40:00,32.1,32.1,29.60,NE,51,9.0,13.0,100,0.01,,---,0.02,VWS V14.01,2013-02-08 22:40:00,
2013-02-08 17:41:00,32.1,32.1,29.60,NNE,28,13.0,13.0,100,0.01,,---,0.02,VWS V14.01,2013-02-08 22:41:00,
2013-02-08 17:44:00,32.1,32.1,29.60,ENE,68,10.0,13.0,100,0.01,,---,0.02,VWS V14.01,2013-02-08 22:44:00,
2013-02-08 17:45:00,32.1,32.1,29.59,NE,47,5.0,13.0,100,0.01,,---,0.02,VWS V14.01,2013-02-08 22:45:00,
2013-02-08 17:46:00,32.1,32.1,29.59,NE,37,11.0,11.0,100,0.01,,---,0.02,VWS V14.01,2013-02-08 22:46:00,
2013-02-08 17:49:00,32.2,32.2,29.59,NE,34,6.0,12.0,100,0.01,,---,0.02,VWS V14.01,2013-02-08 22:49:00,
2013-02-08 17:50:00,32.1,32.1,29.59,NE,44,3.0,12.0,100,0.01,,---,0.02,VWS V14.01,2013-02-08 22:50:00,
2013-02-08 17:51:00,32.2,32.2,29.59,NE,38,3.0,12.0,100,0.01,,---,0.02,VWS V14.01,2013-02-08 22:51:00,
2013-02-08 17:54:00,32.2,32.2,29.59,NE,48,5.0,13.0,100,0.02,,---,0.03,VWS V14.01,2013-02-08 22:54:00,
2013-02-08 17:55:00,32.2,32.2,29.59,NE,55,6.0,13.0,100,0.02,,---,0.03,VWS V14.01,2013-02-08 22:55:00,
2013-02-08 17:56:00,32.1,32.1,29.59,NE,45,8.0,13.0,100,0.02,,---,0.03,VWS V14.01,2013-02-08 22:56:00,
2013-02-08 17:59:00,32.1,32.1,29.59,ENE,61,7.0,13.0,100,0.02,,---,0.03,VWS V14.01,2013-02-08 22:59:00,
2013-02-08 18:01:00,32.1,32.1,29.58,NE,52,5.0,7.0,100,0.01,,---,0.03,VWS V14.01,2013-02-08 23:01:00,
2013-02-08 18:04:00,32.1,32.1,29.58,East,85,7.0,11.0,100,0.01,,---,0.03,VWS V14.01,2013-02-08 23:04:00,
2013-02-08 18:05:00,32.1,32.1,29.58,NE,41,7.0,11.0,100,0.01,,---,0.03,VWS V14.01,2013-02-08 23:05:00,
2013-02-08 18:06:00,32.1,32.1,29.58,ENE,61,8.0,11.0,100,0.01,,---,0.03,VWS V14.01,2013-02-08 23:06:00,
2013-02-08 18:09:00,32.1,32.1,29.58,ENE,59,5.0,17.0,100,0.01,,---,0.03,VWS V14.01,2013-02-08 23:09:00,
2013-02-08 18:10:00,32.1,32.1,29.58,ENE,59,5.0,17.0,100,0.01,,---,0.03,VWS V14.01,2013-02-08 23:10:00,
2013-02-08 18:11:00,32.1,32.1,29.58,ENE,76,5.0,17.0,100,0.01,,---,0.03,VWS V14.01,2013-02-08 23:11:00,
2013-02-08 18:12:00,32.1,32.1,29.58,NE,51,7.0,17.0,100,0.01,,---,0.03,VWS V14.01,2013-02-08 23:12:00,
2013-02-08 18:15:00,32.1,32.1,29.55,ENE,69,8.0,17.0,100,0.01,,---,0.03,VWS V14.01,2013-02-08 23:15:00,
2013-02-08 18:16:00,32.1,32.1,29.55,NNE,20,8.0,8.0,100,0.01,,---,0.03,VWS V14.01,2013-02-08 23:16:00,
2013-02-08 18:17:00,32.1,32.1,29.55,North,0,6.0,11.0,100,0.01,,---,0.03,VWS V14.01,2013-02-08 23:17:00,
2013-02-08 18:20:00,32.1,32.1,29.55,NE,49,3.0,11.0,100,0.01,,---,0.03,VWS V14.01,2013-02-08 23:20:00,
2013-02-08 18:21:00,32.1,32.1,29.55,ENE,73,6.0,11.0,100,0.01,,---,0.03,VWS V14.01,2013-02-08 23:21:00,
2013-02-08 18:22:00,32.1,32.1,29.55,NE,48,5.0,11.0,100,0.01,,---,0.03,VWS V14.01,2013-02-08 23:22:00,
2013-02-08 18:25:00,32.1,32.1,29.55,NE,54,1.0,11.0,100,0.01,,---,0.03,VWS V14.01,2013-02-08 23:25:00,
2013-02-08 18:26:00,32.1,32.1,29.55,NE,52,12.0,12.0,100,0.01,,---,0.03,VWS V14.01,2013-02-08 23:26:00,
2013-02-08 18:27:00,32.1,32.1,29.55,ENE,75,1.0,12.0,100,0.03,,---,0.05,VWS V14.01,2013-02-08 23:27:00,
2013-02-08 18:30:00,32.1,32.1,29.54,ENE,64,1.0,12.0,100,0.03,,---,0.05,VWS V14.01,2013-02-08 23:30:00,
2013-02-08 18:31:00,32.1,32.1,29.54,NE,52,0.0,0.0,100,0.03,,---,0.05,VWS V14.01,2013-02-08 23:31:00,
2013-02-08 18:32:00,32.1,32.1,29.54,NE,38,0.0,0.0,100,0.03,,---,0.05,VWS V14.01,2013-02-08 23:32:00,
2013-02-08 18:35:00,32.1,32.1,29.54,NE,37,0.0,0.0,100,0.03,,---,0.05,VWS V14.01,2013-02-08 23:35:00,
2013-02-08 18:37:00,32.1,32.1,29.54,NNE,31,0.0,0.0,100,0.03,,---,0.05,VWS V14.01,2013-02-08 23:37:00,
2013-02-08 18:40:00,32.1,32.1,29.54,ENE,75,0.0,0.0,100,0.03,,---,0.05,VWS V14.01,2013-02-08 23:40:00,
2013-02-08 18:42:00,32.1,32.1,29.54,NE,45,0.0,0.0,100,0.03,,---,0.05,VWS V14.01,2013-02-08 23:42:00,
2013-02-08 18:45:00,32.1,32.1,29.51,ENE,66,0.0,0.0,100,0.03,,---,0.05,VWS V14.01,2013-02-08 23:45:00,
2013-02-08 18:47:00,32.1,32.1,29.51,NE,51,0.0,0.0,100,0.03,,---,0.05,VWS V14.01,2013-02-08 23:47:00,
2013-02-08 18:50:00,32.1,32.1,29.51,NE,45,0.0,0.0,100,0.03,,---,0.05,VWS V14.01,2013-02-08 23:50:00,
2013-02-08 18:52:00,32.1,32.1,29.51,ENE,69,0.0,0.0,100,0.03,,---,0.05,VWS V14.01,2013-02-08 23:52:00,
2013-02-08 18:56:00,32.1,32.1,29.51,NE,35,0.0,0.0,100,0.03,,---,0.05,VWS V14.01,2013-02-08 23:56:00,
2013-02-08 18:57:00,32.1,32.1,29.51,North,0,0.0,0.0,100,0.03,,---,0.05,VWS V14.01,2013-02-08 23:57:00,
2013-02-08 19:01:00,32.1,32.1,29.50,North,6,0.0,0.0,100,0.02,,---,0.05,VWS V14.01,2013-02-09 00:01:00,
2013-02-08 19:02:00,32.1,32.1,29.50,NE,45,0.0,0.0,100,0.02,,---,0.05,VWS V14.01,2013-02-09 00:02:00,
2013-02-08 19:07:00,32.1,32.1,29.50,ENE,64,0.0,0.0,100,0.02,,---,0.05,VWS V14.01,2013-02-09 00:07:00,
2013-02-08 19:08:00,32.1,32.1,29.50,NNE,20,0.0,0.0,100,0.02,,---,0.05,VWS V14.01,2013-02-09 00:08:00,
2013-02-08 19:12:00,32.1,32.1,29.50,NE,41,0.0,0.0,100,0.02,,---,0.05,VWS V14.01,2013-02-09 00:12:00,
2013-02-08 19:13:00,32.1,32.1,29.50,NE,44,0.0,0.0,100,0.02,,---,0.05,VWS V14.01,2013-02-09 00:13:00,
2013-02-08 19:17:00,32.1,32.1,29.49,NE,42,0.0,0.0,100,0.02,,---,0.05,VWS V14.01,2013-02-09 00:17:00,
2013-02-08 19:18:00,32.1,32.1,29.49,ENE,68,0.0,0.0,100,0.02,,---,0.05,VWS V14.01,2013-02-09 00:18:00,
2013-02-08 19:22:00,32.1,32.1,29.49,NE,38,0.0,0.0,100,0.02,,---,0.05,VWS V14.01,2013-02-09 00:22:00,
2013-02-08 19:23:00,32.1,32.1,29.49,ENE,64,0.0,0.0,100,0.02,,---,0.05,VWS V14.01,2013-02-09 00:23:00,
2013-02-08 19:27:00,32.1,32.1,29.49,NNE,24,0.0,0.0,100,0.02,,---,0.05,VWS V14.01,2013-02-09 00:27:00,
2013-02-08 19:28:00,32.1,32.1,29.49,NNE,23,0.0,0.0,100,0.02,,---,0.05,VWS V14.01,2013-02-09 00:28:00,
2013-02-08 19:32:00,32.1,32.1,29.48,ENE,68,0.0,0.0,100,0.00,,---,0.05,VWS V14.01,2013-02-09 00:32:00,
2013-02-08 19:33:00,32.1,32.1,29.48,NE,47,0.0,0.0,100,0.00,,---,0.05,VWS V14.01,2013-02-09 00:33:00,
2013-02-08 19:37:00,32.1,32.1,29.48,East,86,0.0,0.0,100,0.00,,---,0.05,VWS V14.01,2013-02-09 00:37:00,
2013-02-08 19:38:00,32.1,32.1,29.48,NNE,30,0.0,0.0,100,0.00,,---,0.05,VWS V14.01,2013-02-09 00:38:00,
2013-02-08 19:39:00,32.1,32.1,29.48,NE,35,0.0,0.0,100,0.00,,---,0.05,VWS V14.01,2013-02-09 00:39:00,
2013-02-08 19:42:00,32.1,32.1,29.48,NE,47,0.0,0.0,100,0.00,,---,0.05,VWS V14.01,2013-02-09 00:42:00,
2013-02-08 19:43:00,32.1,32.1,29.48,NNE,23,0.0,0.0,100,0.01,,---,0.06,VWS V14.01,2013-02-09 00:43:00,
2013-02-08 19:44:00,32.1,32.1,29.48,North,10,0.0,0.0,100,0.01,,---,0.06,VWS V14.01,2013-02-09 00:44:00,
2013-02-08 19:48:00,31.9,31.9,29.44,NNE,31,0.0,0.0,100,0.01,,---,0.06,VWS V14.01,2013-02-09 00:48:00,
2013-02-08 19:49:00,31.9,31.9,29.44,NE,49,0.0,0.0,100,0.01,,---,0.06,VWS V14.01,2013-02-09 00:49:00,
2013-02-08 19:53:00,32.1,32.1,29.44,North,6,0.0,0.0,100,0.01,,---,0.06,VWS V14.01,2013-02-09 00:53:00,
2013-02-08 19:54:00,32.1,32.1,29.44,North,7,0.0,0.0,100,0.01,,---,0.06,VWS V14.01,2013-02-09 00:54:00,
2013-02-08 19:58:00,32.1,32.1,29.44,NE,40,0.0,0.0,100,0.01,,---,0.06,VWS V14.01,2013-02-09 00:58:00,
2013-02-08 19:59:00,32.1,32.1,29.44,NE,41,0.0,0.0,100,0.01,,---,0.06,VWS V14.01,2013-02-09 00:59:00,
2013-02-08 20:03:00,32.1,32.1,29.43,NE,44,0.0,0.0,100,0.01,,---,0.06,VWS V14.01,2013-02-09 01:03:00,
2013-02-08 20:04:00,32.1,32.1,29.43,NNE,18,0.0,0.0,100,0.01,,---,0.06,VWS V14.01,2013-02-09 01:04:00,
2013-02-08 20:08:00,32.1,32.1,29.43,NE,42,0.0,0.0,100,0.01,,---,0.06,VWS V14.01,2013-02-09 01:08:00,
2013-02-08 20:09:00,32.1,32.1,29.43,NNE,13,0.0,0.0,100,0.01,,---,0.06,VWS V14.01,2013-02-09 01:09:00,
2013-02-08 20:13:00,32.1,32.1,29.43,NNE,13,0.0,0.0,100,0.01,,---,0.06,VWS V14.01,2013-02-09 01:13:00,
2013-02-08 20:14:00,32.1,32.1,29.43,NNE,18,0.0,0.0,100,0.01,,---,0.06,VWS V14.01,2013-02-09 01:14:00,
2013-02-08 20:18:00,32.1,32.1,29.41,NNE,27,0.0,0.0,100,0.01,,---,0.06,VWS V14.01,2013-02-09 01:18:00,
2013-02-08 20:19:00,32.1,32.1,29.41,NE,54,0.0,0.0,100,0.01,,---,0.06,VWS V14.01,2013-02-09 01:19:00,
2013-02-08 20:20:00,31.9,31.9,29.41,NE,52,0.0,0.0,100,0.01,,---,0.06,VWS V14.01,2013-02-09 01:20:00,
2013-02-08 20:23:00,31.9,31.9,29.41,NE,41,0.0,0.0,100,0.01,,---,0.06,VWS V14.01,2013-02-09 01:23:00,
2013-02-08 20:24:00,31.9,31.9,29.41,NNE,23,0.0,0.0,100,0.01,,---,0.06,VWS V14.01,2013-02-09 01:24:00,
2013-02-08 20:25:00,31.9,31.9,29.41,NE,34,0.0,0.0,100,0.01,,---,0.06,VWS V14.01,2013-02-09 01:25:00,
2013-02-08 20:28:00,31.9,31.9,29.41,NE,44,0.0,0.0,100,0.01,,---,0.06,VWS V14.01,2013-02-09 01:28:00,
2013-02-08 20:29:00,31.9,31.9,29.41,NNE,32,0.0,0.0,100,0.01,,---,0.06,VWS V14.01,2013-02-09 01:29:00,
2013-02-08 20:30:00,31.9,31.9,29.40,NW,308,0.0,0.0,100,0.01,,---,0.06,VWS V14.01,2013-02-09 01:30:00,